Time,TemperatureF,DewpointF,PressureIn,WindDirection,WindDirectionDegrees,WindSpeedMPH,WindSpeedGustMPH,Humidity,HourlyPrecipIn,Conditions,Clouds,dailyrainin,SolarRadiationWatts/m^2,SoftwareType,DateUTC
2013-08-06 00:01:00,66.6,47.9,30.01,NW,312,0.0,0.0,51,0.00,,,0.00,0.0,WeatherDisplay:10.37,2013-08-06 07:01:00,
2013-08-06 00:03:00,66.6,47.9,30.01,NW,312,0.0,0.0,51,0.00,,,0.00,0.0,WeatherDisplay:10.37,2013-08-06 07:03:00,
2013-08-06 00:05:00,66.6,47.9,30.01,NW,312,0.0,0.0,51,0.00,,,0.00,0.0,WeatherDisplay:10.37,2013-08-06 07:05:00,
2013-08-06 00:06:00,66.6,47.9,30.01,NW,312,0.0,0.0,51,0.00,,,0.00,0.0,WeatherDisplay:10.37,2013-08-06 07:06:00,
2013-08-06 00:07:00,66.5,47.8,30.01,NW,312,0.0,0.0,51,0.00,,,0.00,0.0,WeatherDisplay:10.37,2013-08-06 07:07:00,
2013-08-06 00:08:00,66.4,47.7,30.01,NW,312,0.0,0.0,51,0.00,,,0.00,0.0,WeatherDisplay:10.37,2013-08-06 07:08:00,
2013-08-06 00:10:00,66.2,47.5,30.01,NW,312,0.0,0.0,51,0.00,,,0.00,0.0,WeatherDisplay:10.37,2013-08-06 07:10:00,
2013-08-06 00:11:00,66.1,47.4,30.01,NW,312,0.0,0.1,51,0.00,,,0.00,0.0,WeatherDisplay:10.37,2013-08-06 07:11:00,
2013-08-06 00:12:00,66.1,47.4,30.01,NW,312,0.0,0.1,51,0.00,,,0.00,0.0,WeatherDisplay:10.37,2013-08-06 07:12:00,
2013-08-06 00:13:00,66.1,47.4,30.01,NW,312,0.0,0.0,51,0.00,,,0.00,0.0,WeatherDisplay:10.37,2013-08-06 07:13:00,
2013-08-06 00:14:00,66.0,47.9,30.01,NW,312,0.0,0.0,52,0.00,,,0.00,0.0,WeatherDisplay:10.37,2013-08-06 07:14:00,
2013-08-06 00:15:00,65.9,47.3,30.01,NW,312,0.0,0.0,51,0.00,,,0.00,0.0,WeatherDisplay:10.37,2013-08-06 07:15:00,
2013-08-06 00:16:00,65.7,47.6,30.01,NW,312,0.0,0.0,52,0.00,,,0.00,0.0,WeatherDisplay:10.37,2013-08-06 07:16:00,
2013-08-06 00:17:00,65.7,47.6,30.01,NW,312,0.0,0.0,52,0.00,,,0.00,0.0,WeatherDisplay:10.37,2013-08-06 07:17:00,
2013-08-06 00:19:00,65.6,47.5,30.01,NW,312,0.0,0.0,52,0.00,,,0.00,0.0,WeatherDisplay:10.37,2013-08-06 07:19:00,
2013-08-06 00:20:00,65.6,47.5,30.01,NW,312,0.0,0.0,52,0.00,,,0.00,0.0,WeatherDisplay:10.37,2013-08-06 07:20:00,
2013-08-06 00:22:00,65.5,47.4,30.01,NW,312,1.2,0.0,52,0.00,,,0.00,0.0,WeatherDisplay:10.37,2013-08-06 07:22:00,
2013-08-06 00:23:00,65.5,47.4,30.01,NW,312,1.2,0.0,52,0.00,,,0.00,0.0,WeatherDisplay:10.37,2013-08-06 07:23:00,
2013-08-06 00:24:00,65.4,47.3,30.01,NW,312,0.0,0.0,52,0.00,,,0.00,0.0,WeatherDisplay:10.37,2013-08-06 07:24:00,
2013-08-06 00:25:00,65.3,47.2,30.01,NW,312,1.2,1.2,52,0.00,,,0.00,0.0,WeatherDisplay:10.37,2013-08-06 07:25:00,
2013-08-06 00:28:00,65.2,47.1,30.01,NW,312,0.0,0.0,52,0.00,,,0.00,0.0,WeatherDisplay:10.37,2013-08-06 07:28:00,
2013-08-06 00:29:00,65.0,46.9,30.01,NW,312,0.0,0.0,52,0.00,,,0.00,0.0,WeatherDisplay:10.37,2013-08-06 07:29:00,
2013-08-06 00:30:00,65.0,46.9,30.01,NW,312,0.0,0.0,52,0.00,,,0.00,0.0,WeatherDisplay:10.37,2013-08-06 07:30:00,
2013-08-06 00:31:00,65.0,46.9,30.01,NW,312,0.0,0.0,52,0.00,,,0.00,0.0,WeatherDisplay:10.37,2013-08-06 07:31:00,
2013-08-06 00:33:00,64.8,47.3,30.01,NW,312,0.0,0.0,53,0.00,,,0.00,0.0,WeatherDisplay:10.37,2013-08-06 07:33:00,
2013-08-06 00:34:00,64.8,47.3,30.01,NW,312,0.0,0.0,53,0.00,,,0.00,0.0,WeatherDisplay:10.37,2013-08-06 07:34:00,
2013-08-06 00:35:00,64.7,47.2,30.01,NW,312,0.0,0.0,53,0.00,,,0.00,0.0,WeatherDisplay:10.37,2013-08-06 07:35:00,
2013-08-06 00:36:00,64.6,47.1,30.01,NW,312,0.0,0.0,53,0.00,,,0.00,0.0,WeatherDisplay:10.37,2013-08-06 07:36:00,
2013-08-06 00:38:00,64.4,47.4,30.01,NW,312,1.2,1.2,54,0.00,,,0.00,0.0,WeatherDisplay:10.37,2013-08-06 07:38:00,
2013-08-06 00:39:00,64.3,47.3,30.01,NW,312,1.2,0.0,54,0.00,,,0.00,0.0,WeatherDisplay:10.37,2013-08-06 07:39:00,
2013-08-06 00:40:00,64.2,47.2,30.01,NW,312,0.0,0.1,54,0.00,,,0.00,0.0,WeatherDisplay:10.37,2013-08-06 07:40:00,
2013-08-06 00:41:00,64.2,47.2,30.01,NW,312,1.2,1.2,54,0.00,,,0.00,0.0,WeatherDisplay:10.37,2013-08-06 07:41:00,
2013-08-06 00:44:00,64.3,47.3,30.01,NW,312,1.2,0.0,54,0.00,,,0.00,0.0,WeatherDisplay:10.37,2013-08-06 07:44:00,
2013-08-06 00:45:00,64.3,47.3,30.01,NW,312,1.2,0.0,54,0.00,,,0.00,0.0,WeatherDisplay:10.37,2013-08-06 07:45:00,
2013-08-06 00:46:00,64.4,46.9,30.01,NW,312,0.0,0.0,53,0.00,,,0.00,0.0,WeatherDisplay:10.37,2013-08-06 07:46:00,
2013-08-06 00:49:00,64.4,47.4,30.01,NW,312,0.0,0.2,54,0.00,,,0.00,0.0,WeatherDisplay:10.37,2013-08-06 07:49:00,
2013-08-06 00:50:00,64.3,47.8,30.01,NW,312,0.0,0.0,55,0.00,,,0.00,0.0,WeatherDisplay:10.37,2013-08-06 07:50:00,
2013-08-06 00:53:00,64.3,47.3,30.01,NW,312,0.0,0.0,54,0.00,,,0.00,0.0,WeatherDisplay:10.37,2013-08-06 07:53:00,
2013-08-06 00:54:00,64.2,47.7,30.01,NW,312,1.2,1.2,55,0.00,,,0.00,0.0,WeatherDisplay:10.37,2013-08-06 07:54:00,
2013-08-06 00:55:00,64.2,47.7,30.01,NW,312,1.2,0.0,55,0.00,,,0.00,0.0,WeatherDisplay:10.37,2013-08-06 07:55:00,
2013-08-06 00:56:00,64.1,47.6,30.01,NW,312,1.2,0.0,55,0.00,,,0.00,0.0,WeatherDisplay:10.37,2013-08-06 07:56:00,
2013-08-06 00:58:00,63.9,47.4,30.01,NW,312,1.2,0.0,55,0.00,,,0.00,0.0,WeatherDisplay:10.37,2013-08-06 07:58:00,
2013-08-06 01:00:00,63.8,47.3,30.01,NW,312,0.0,0.0,55,0.00,,,0.00,0.0,WeatherDisplay:10.37,2013-08-06 08:00:00,
2013-08-06 01:01:00,63.7,47.2,30.01,NW,312,1.2,0.0,55,0.00,,,0.00,0.0,WeatherDisplay:10.37,2013-08-06 08:01:00,
2013-08-06 01:04:00,63.4,46.0,30.01,NW,312,0.0,0.0,53,0.00,,,0.00,0.0,WeatherDisplay:10.37,2013-08-06 08:04:00,
2013-08-06 01:05:00,63.2,45.8,30.01,NW,312,0.0,0.0,53,0.00,,,0.00,0.0,WeatherDisplay:10.37,2013-08-06 08:05:00,
2013-08-06 01:06:00,63.1,46.2,30.01,NW,312,0.0,0.0,54,0.00,,,0.00,0.0,WeatherDisplay:10.37,2013-08-06 08:06:00,
2013-08-06 01:09:00,62.8,46.9,30.01,NW,312,1.0,1.0,56,0.00,,,0.00,0.0,WeatherDisplay:10.37,2013-08-06 08:09:00,
2013-08-06 01:10:00,62.9,47.0,30.01,NW,312,1.2,1.2,56,0.00,,,0.00,0.0,WeatherDisplay:10.37,2013-08-06 08:10:00,
2013-08-06 01:11:00,63.0,47.1,30.01,NW,312,1.2,0.0,56,0.00,,,0.00,0.0,WeatherDisplay:10.37,2013-08-06 08:11:00,
2013-08-06 01:14:00,63.1,47.1,30.01,NW,312,1.2,0.0,56,0.00,,,0.00,0.0,WeatherDisplay:10.37,2013-08-06 08:14:00,
2013-08-06 01:15:00,63.1,47.1,30.01,NW,312,0.0,1.0,56,0.00,,,0.00,0.0,WeatherDisplay:10.37,2013-08-06 08:15:00,
2013-08-06 01:16:00,63.0,47.1,30.01,NW,312,1.2,1.2,56,0.00,,,0.00,0.0,WeatherDisplay:10.37,2013-08-06 08:16:00,
2013-08-06 01:19:00,62.9,47.0,30.01,NW,312,1.2,1.2,56,0.00,,,0.00,0.0,WeatherDisplay:10.37,2013-08-06 08:19:00,
2013-08-06 01:20:00,62.8,46.9,30.01,NW,312,0.0,0.0,56,0.00,,,0.00,0.0,WeatherDisplay:10.37,2013-08-06 08:20:00,
2013-08-06 01:21:00,62.8,46.9,30.01,NW,312,0.0,0.0,56,0.00,,,0.00,0.0,WeatherDisplay:10.37,2013-08-06 08:21:00,
2013-08-06 01:22:00,62.7,46.8,30.01,NW,312,0.0,0.0,56,0.00,,,0.00,0.0,WeatherDisplay:10.37,2013-08-06 08:22:00,
2013-08-06 01:24:00,62.6,46.7,30.01,NW,312,1.2,0.0,56,0.00,,,0.00,0.0,WeatherDisplay:10.37,2013-08-06 08:24:00,
2013-08-06 01:25:00,62.5,47.1,30.01,NW,312,1.2,1.2,57,0.00,,,0.00,0.0,WeatherDisplay:10.37,2013-08-06 08:25:00,
2013-08-06 01:27:00,62.5,47.1,30.01,NW,312,1.2,0.0,57,0.00,,,0.00,0.0,WeatherDisplay:10.37,2013-08-06 08:27:00,
2013-08-06 01:30:00,62.5,47.1,30.01,NW,312,1.2,0.0,57,0.00,,,0.00,0.0,WeatherDisplay:10.37,2013-08-06 08:30:00,
2013-08-06 01:31:00,62.5,47.1,30.01,NW,312,1.2,0.0,57,0.00,,,0.00,0.0,WeatherDisplay:10.37,2013-08-06 08:31:00,
2013-08-06 01:32:00,62.5,47.1,30.01,NW,312,1.2,0.0,57,0.00,,,0.00,0.0,WeatherDisplay:10.37,2013-08-06 08:32:00,
2013-08-06 01:35:00,62.3,46.9,30.01,NW,312,0.0,1.0,57,0.00,,,0.00,0.0,WeatherDisplay:10.37,2013-08-06 08:35:00,
2013-08-06 01:36:00,62.2,46.8,30.01,NW,312,0.0,0.0,57,0.00,,,0.00,0.0,WeatherDisplay:10.37,2013-08-06 08:36:00,
2013-08-06 01:37:00,62.0,46.6,30.01,NW,310,1.2,1.2,57,0.00,,,0.00,0.0,WeatherDisplay:10.37,2013-08-06 08:37:00,
2013-08-06 01:38:00,61.9,46.5,30.01,NW,310,1.2,1.2,57,0.00,,,0.00,0.0,WeatherDisplay:10.37,2013-08-06 08:38:00,
2013-08-06 01:40:00,61.7,46.8,30.01,South,184,2.3,2.3,58,0.00,,,0.00,0.0,WeatherDisplay:10.37,2013-08-06 08:40:00,
2013-08-06 01:41:00,61.6,46.7,30.01,South,184,1.2,1.2,58,0.00,,,0.00,0.0,WeatherDisplay:10.37,2013-08-06 08:41:00,
2013-08-06 01:42:00,61.6,46.7,30.01,South,184,1.2,1.2,58,0.00,,,0.00,0.0,WeatherDisplay:10.37,2013-08-06 08:42:00,
2013-08-06 01:43:00,61.6,46.7,30.01,South,184,1.2,1.2,58,0.00,,,0.00,0.0,WeatherDisplay:10.37,2013-08-06 08:43:00,
2013-08-06 01:46:00,61.5,46.6,30.01,South,184,0.0,0.0,58,0.00,,,0.00,0.0,WeatherDisplay:10.37,2013-08-06 08:46:00,
2013-08-06 01:47:00,61.5,46.6,30.01,South,184,1.2,0.0,58,0.00,,,0.00,0.0,WeatherDisplay:10.37,2013-08-06 08:47:00,
2013-08-06 01:48:00,61.5,46.6,30.01,South,184,1.2,0.0,58,0.00,,,0.00,0.0,WeatherDisplay:10.37,2013-08-06 08:48:00,
2013-08-06 01:52:00,61.4,46.9,30.01,South,184,1.2,1.2,59,0.00,,,0.00,0.0,WeatherDisplay:10.37,2013-08-06 08:52:00,
2013-08-06 01:53:00,61.4,46.5,30.01,South,184,1.2,1.2,58,0.00,,,0.00,0.0,WeatherDisplay:10.37,2013-08-06 08:53:00,
2013-08-06 01:57:00,61.4,46.9,30.01,South,184,0.0,0.0,59,0.00,,,0.00,0.0,WeatherDisplay:10.37,2013-08-06 08:57:00,
2013-08-06 01:58:00,61.3,46.8,30.01,South,184,0.0,0.0,59,0.00,,,0.00,0.0,WeatherDisplay:10.37,2013-08-06 08:58:00,
2013-08-06 01:59:00,61.3,46.8,30.01,South,184,0.0,0.0,59,0.00,,,0.00,0.0,WeatherDisplay:10.37,2013-08-06 08:59:00,
2013-08-06 02:02:00,61.1,46.7,30.01,South,184,1.2,0.0,59,0.00,,,0.00,0.0,WeatherDisplay:10.37,2013-08-06 09:02:00,
2013-08-06 02:03:00,61.1,46.7,30.01,South,184,1.2,0.0,59,0.00,,,0.00,0.0,WeatherDisplay:10.37,2013-08-06 09:03:00,
2013-08-06 02:04:00,61.0,46.6,30.01,South,184,1.2,0.0,59,0.00,,,0.00,0.0,WeatherDisplay:10.37,2013-08-06 09:04:00,
2013-08-06 02:07:00,60.8,46.4,30.01,South,184,0.0,0.0,59,0.00,,,0.00,0.0,WeatherDisplay:10.37,2013-08-06 09:07:00,
2013-08-06 02:09:00,60.8,46.4,30.01,South,184,0.0,0.1,59,0.00,,,0.00,0.0,WeatherDisplay:10.37,2013-08-06 09:09:00,
2013-08-06 02:13:00,60.8,46.8,30.01,South,184,0.0,0.0,60,0.00,,,0.00,0.0,WeatherDisplay:10.37,2013-08-06 09:13:00,
2013-08-06 02:14:00,60.8,46.8,30.01,South,184,1.2,1.2,60,0.00,,,0.00,0.0,WeatherDisplay:10.37,2013-08-06 09:14:00,
2013-08-06 02:15:00,60.9,46.9,30.01,South,184,1.2,0.0,60,0.00,,,0.00,0.0,WeatherDisplay:10.37,2013-08-06 09:15:00,
2013-08-06 02:16:00,60.8,46.8,30.01,South,184,1.0,1.0,60,0.00,,,0.00,0.0,WeatherDisplay:10.37,2013-08-06 09:16:00,
2013-08-06 02:18:00,60.7,46.7,30.01,South,184,0.0,0.0,60,0.00,,,0.00,0.0,WeatherDisplay:10.37,2013-08-06 09:18:00,
2013-08-06 02:19:00,60.7,46.7,30.01,South,184,0.0,0.0,60,0.00,,,0.00,0.0,WeatherDisplay:10.37,2013-08-06 09:19:00,
2013-08-06 02:20:00,60.7,46.7,30.01,South,184,1.2,0.0,60,0.00,,,0.00,0.0,WeatherDisplay:10.37,2013-08-06 09:20:00,
2013-08-06 02:21:00,60.7,46.7,30.01,South,184,1.2,0.0,60,0.00,,,0.00,0.0,WeatherDisplay:10.37,2013-08-06 09:21:00,
2013-08-06 02:24:00,60.5,46.5,30.01,South,184,0.0,0.0,60,0.00,,,0.00,0.0,WeatherDisplay:10.37,2013-08-06 09:24:00,
2013-08-06 02:25:00,60.4,46.4,30.01,South,184,1.2,0.0,60,0.00,,,0.00,0.0,WeatherDisplay:10.37,2013-08-06 09:25:00,
2013-08-06 02:26:00,60.4,46.0,30.01,South,184,1.2,0.0,59,0.00,,,0.00,0.0,WeatherDisplay:10.37,2013-08-06 09:26:00,
2013-08-06 02:29:00,60.2,45.8,30.01,South,184,0.0,0.0,59,0.00,,,0.00,0.0,WeatherDisplay:10.37,2013-08-06 09:29:00,
2013-08-06 02:30:00,60.2,45.4,30.01,South,184,1.2,1.2,58,0.00,,,0.00,0.0,WeatherDisplay:10.37,2013-08-06 09:30:00,
2013-08-06 02:31:00,60.2,45.4,30.01,South,184,1.2,0.0,58,0.00,,,0.00,0.0,WeatherDisplay:10.37,2013-08-06 09:31:00,
2013-08-06 02:34:00,59.3,44.1,30.00,South,184,2.3,2.3,57,0.00,,,0.00,0.0,WeatherDisplay:10.37,2013-08-06 09:34:00,
2013-08-06 02:36:00,58.9,44.1,30.00,South,184,0.0,0.0,58,0.00,,,0.00,0.0,WeatherDisplay:10.37,2013-08-06 09:36:00,
2013-08-06 02:39:00,58.4,45.0,30.01,South,184,1.2,0.0,61,0.00,,,0.00,0.0,WeatherDisplay:10.37,2013-08-06 09:39:00,
2013-08-06 02:40:00,58.4,45.0,30.01,South,184,1.2,0.0,61,0.00,,,0.00,0.0,WeatherDisplay:10.37,2013-08-06 09:40:00,
2013-08-06 02:41:00,58.4,45.0,30.00,South,184,0.0,0.0,61,0.00,,,0.00,0.0,WeatherDisplay:10.37,2013-08-06 09:41:00,
2013-08-06 02:42:00,58.4,45.0,30.00,South,184,1.2,1.2,61,0.00,,,0.00,0.0,WeatherDisplay:10.37,2013-08-06 09:42:00,
2013-08-06 02:45:00,58.5,45.5,30.01,South,184,1.2,1.2,62,0.00,,,0.00,0.0,WeatherDisplay:10.37,2013-08-06 09:45:00,
2013-08-06 02:46:00,58.4,45.4,30.01,South,184,1.2,0.0,62,0.00,,,0.00,0.0,WeatherDisplay:10.37,2013-08-06 09:46:00,
2013-08-06 02:47:00,58.4,45.4,30.01,South,184,1.2,1.2,62,0.00,,,0.00,0.0,WeatherDisplay:10.37,2013-08-06 09:47:00,
2013-08-06 02:50:00,58.3,45.3,30.01,South,184,0.0,1.0,62,0.00,,,0.00,0.0,WeatherDisplay:10.37,2013-08-06 09:50:00,
2013-08-06 02:51:00,58.1,45.6,30.01,South,184,1.2,0.0,63,0.00,,,0.00,0.0,WeatherDisplay:10.37,2013-08-06 09:51:00,
2013-08-06 02:52:00,58.1,45.6,30.01,South,184,1.2,0.0,63,0.00,,,0.00,0.0,WeatherDisplay:10.37,2013-08-06 09:52:00,
2013-08-06 02:54:00,57.9,45.4,30.01,South,184,1.2,1.2,63,0.00,,,0.00,0.0,WeatherDisplay:10.37,2013-08-06 09:54:00,
2013-08-06 02:56:00,57.9,45.4,30.01,South,184,1.2,1.2,63,0.00,,,0.00,0.0,WeatherDisplay:10.37,2013-08-06 09:56:00,
2013-08-06 02:57:00,58.0,45.0,30.01,SSE,166,3.5,3.5,62,0.00,,,0.00,0.0,WeatherDisplay:10.37,2013-08-06 09:57:00,
2013-08-06 03:00:00,57.7,45.2,30.01,SSE,166,1.2,1.2,63,0.00,,,0.00,0.0,WeatherDisplay:10.37,2013-08-06 10:00:00,
2013-08-06 03:01:00,57.7,45.2,30.01,SSE,166,1.2,1.2,63,0.00,,,0.00,0.0,WeatherDisplay:10.37,2013-08-06 10:01:00,
2013-08-06 03:02:00,57.6,45.1,30.01,SSE,166,1.2,1.2,63,0.00,,,0.00,0.0,WeatherDisplay:10.37,2013-08-06 10:02:00,
2013-08-06 03:05:00,57.5,45.4,30.01,SSE,166,1.2,1.2,64,0.00,,,0.00,0.0,WeatherDisplay:10.37,2013-08-06 10:05:00,
2013-08-06 03:06:00,57.5,45.4,30.01,SSE,166,1.2,0.0,64,0.00,,,0.00,0.0,WeatherDisplay:10.37,2013-08-06 10:06:00,
2013-08-06 03:07:00,57.6,45.5,30.01,SSE,166,1.2,0.0,64,0.00,,,0.00,0.0,WeatherDisplay:10.37,2013-08-06 10:07:00,
2013-08-06 03:08:00,57.7,45.2,30.01,SSE,166,1.2,0.0,63,0.00,,,0.00,0.0,WeatherDisplay:10.37,2013-08-06 10:08:00,
2013-08-06 03:10:00,57.7,45.2,30.01,SSE,166,0.0,0.0,63,0.00,,,0.00,0.0,WeatherDisplay:10.37,2013-08-06 10:10:00,
2013-08-06 03:11:00,57.7,45.2,30.01,SSE,166,0.0,0.0,63,0.00,,,0.00,0.0,WeatherDisplay:10.37,2013-08-06 10:11:00,
2013-08-06 03:13:00,57.6,45.5,30.01,SSE,166,0.0,0.1,64,0.00,,,0.00,0.0,WeatherDisplay:10.37,2013-08-06 10:13:00,
2013-08-06 03:15:00,57.5,45.4,30.01,SSE,166,1.2,0.0,64,0.00,,,0.00,0.0,WeatherDisplay:10.37,2013-08-06 10:15:00,
2013-08-06 03:16:00,57.5,45.8,30.01,SSE,166,0.0,0.1,65,0.00,,,0.00,0.0,WeatherDisplay:10.37,2013-08-06 10:16:00,
2013-08-06 03:18:00,57.5,45.4,30.01,SSE,166,1.2,0.0,64,0.00,,,0.00,0.0,WeatherDisplay:10.37,2013-08-06 10:18:00,
2013-08-06 03:20:00,57.5,45.0,30.01,SSE,166,0.0,1.0,63,0.00,,,0.00,0.0,WeatherDisplay:10.37,2013-08-06 10:20:00,
2013-08-06 03:21:00,57.5,45.0,30.02,SSE,166,1.2,0.0,63,0.00,,,0.00,0.0,WeatherDisplay:10.37,2013-08-06 10:21:00,
2013-08-06 03:23:00,57.3,45.2,30.02,SSE,166,1.2,0.0,64,0.00,,,0.00,0.0,WeatherDisplay:10.37,2013-08-06 10:23:00,
2013-08-06 03:25:00,57.2,45.1,30.02,SSE,166,1.2,1.2,64,0.00,,,0.00,0.0,WeatherDisplay:10.37,2013-08-06 10:25:00,
2013-08-06 03:27:00,57.2,45.1,30.01,SSE,166,1.2,1.2,64,0.00,,,0.00,0.0,WeatherDisplay:10.37,2013-08-06 10:27:00,
2013-08-06 03:28:00,57.3,45.2,30.02,SSE,166,1.2,1.2,64,0.00,,,0.00,0.0,WeatherDisplay:10.37,2013-08-06 10:28:00,
2013-08-06 03:31:00,57.3,45.2,30.02,SSE,166,0.0,0.0,64,0.00,,,0.00,0.0,WeatherDisplay:10.37,2013-08-06 10:31:00,
2013-08-06 03:32:00,57.4,45.3,30.01,SSE,166,0.0,0.0,64,0.00,,,0.00,0.0,WeatherDisplay:10.37,2013-08-06 10:32:00,
2013-08-06 03:33:00,57.3,45.2,30.01,SSE,166,0.0,0.0,64,0.00,,,0.00,0.0,WeatherDisplay:10.37,2013-08-06 10:33:00,
2013-08-06 03:34:00,57.3,45.2,30.01,SSE,166,0.0,0.0,64,0.00,,,0.00,0.0,WeatherDisplay:10.37,2013-08-06 10:34:00,
2013-08-06 03:37:00,57.0,44.9,30.01,SSE,166,3.5,3.5,64,0.00,,,0.00,0.0,WeatherDisplay:10.37,2013-08-06 10:37:00,
2013-08-06 03:38:00,56.9,45.3,30.01,SSE,166,1.2,1.2,65,0.00,,,0.00,0.0,WeatherDisplay:10.37,2013-08-06 10:38:00,
2013-08-06 03:39:00,56.8,45.2,30.01,SSE,166,1.2,1.2,65,0.00,,,0.00,0.0,WeatherDisplay:10.37,2013-08-06 10:39:00,
2013-08-06 03:42:00,56.6,45.0,30.01,SSE,166,1.2,1.2,65,0.00,,,0.00,0.0,WeatherDisplay:10.37,2013-08-06 10:42:00,
2013-08-06 03:43:00,56.5,44.9,30.01,SSE,166,1.2,1.2,65,0.00,,,0.00,0.0,WeatherDisplay:10.37,2013-08-06 10:43:00,
2013-08-06 03:44:00,56.5,44.9,30.01,SSE,166,1.2,0.0,65,0.00,,,0.00,0.0,WeatherDisplay:10.37,2013-08-06 10:44:00,
2013-08-06 03:47:00,56.3,45.1,30.01,SSE,166,0.0,0.0,66,0.00,,,0.00,0.0,WeatherDisplay:10.37,2013-08-06 10:47:00,
2013-08-06 03:48:00,56.3,45.1,30.01,SSE,166,1.2,0.0,66,0.00,,,0.00,0.0,WeatherDisplay:10.37,2013-08-06 10:48:00,
2013-08-06 03:49:00,56.3,45.1,30.01,SSE,166,1.2,1.2,66,0.00,,,0.00,0.0,WeatherDisplay:10.37,2013-08-06 10:49:00,
2013-08-06 03:50:00,56.5,45.3,30.01,SSE,166,1.2,1.2,66,0.00,,,0.00,0.0,WeatherDisplay:10.37,2013-08-06 10:50:00,
2013-08-06 03:52:00,56.6,45.4,30.01,SSE,166,1.2,1.2,66,0.00,,,0.00,0.0,WeatherDisplay:10.37,2013-08-06 10:52:00,
2013-08-06 03:53:00,56.6,45.4,30.01,SSE,166,1.2,1.2,66,0.00,,,0.00,0.0,WeatherDisplay:10.37,2013-08-06 10:53:00,
2013-08-06 03:54:00,56.7,45.5,30.01,SSE,166,1.2,1.2,66,0.00,,,0.00,0.0,WeatherDisplay:10.37,2013-08-06 10:54:00,
2013-08-06 03:55:00,56.7,45.5,30.01,SSE,166,1.2,0.0,66,0.00,,,0.00,0.0,WeatherDisplay:10.37,2013-08-06 10:55:00,
2013-08-06 03:58:00,56.7,45.5,30.01,SSE,166,1.2,0.0,66,0.00,,,0.00,0.0,WeatherDisplay:10.37,2013-08-06 10:58:00,
2013-08-06 03:59:00,56.7,45.5,30.01,SSE,166,0.0,0.0,66,0.00,,,0.00,0.0,WeatherDisplay:10.37,2013-08-06 10:59:00,
2013-08-06 04:00:00,56.7,45.5,30.01,SSE,166,0.0,0.0,66,0.00,,,0.00,0.0,WeatherDisplay:10.37,2013-08-06 11:00:00,
2013-08-06 04:03:00,56.8,45.6,30.01,SSE,166,1.2,0.0,66,0.00,,,0.00,0.0,WeatherDisplay:10.37,2013-08-06 11:03:00,
2013-08-06 04:04:00,56.9,45.3,30.01,SSE,166,2.3,2.3,65,0.00,,,0.00,0.0,WeatherDisplay:10.37,2013-08-06 11:04:00,
2013-08-06 04:06:00,56.9,44.8,30.02,SSE,166,2.3,2.3,64,0.00,,,0.00,0.0,WeatherDisplay:10.37,2013-08-06 11:06:00,
2013-08-06 04:08:00,56.4,44.4,30.02,SSE,165,1.2,1.2,64,0.00,,,0.00,0.0,WeatherDisplay:10.37,2013-08-06 11:08:00,
2013-08-06 04:09:00,56.4,44.4,30.02,SSE,165,1.2,0.0,64,0.00,,,0.00,0.0,WeatherDisplay:10.37,2013-08-06 11:09:00,
2013-08-06 04:11:00,56.2,44.6,30.02,SSE,165,1.2,0.0,65,0.00,,,0.00,0.0,WeatherDisplay:10.37,2013-08-06 11:11:00,
2013-08-06 04:14:00,56.0,44.8,30.02,SSE,165,1.2,1.2,66,0.00,,,0.00,0.0,WeatherDisplay:10.37,2013-08-06 11:14:00,
2013-08-06 04:15:00,55.9,44.7,30.02,SSE,165,1.2,1.2,66,0.00,,,0.00,0.0,WeatherDisplay:10.37,2013-08-06 11:15:00,
2013-08-06 04:16:00,55.9,44.7,30.02,SSE,165,2.3,2.3,66,0.00,,,0.00,0.0,WeatherDisplay:10.37,2013-08-06 11:16:00,
2013-08-06 04:19:00,55.6,44.4,30.02,SSE,165,1.2,1.2,66,0.00,,,0.00,0.0,WeatherDisplay:10.37,2013-08-06 11:19:00,
2013-08-06 04:20:00,55.6,44.4,30.02,SSE,165,1.2,1.2,66,0.00,,,0.00,0.0,WeatherDisplay:10.37,2013-08-06 11:20:00,
2013-08-06 04:21:00,55.5,44.3,30.02,SSE,165,1.2,1.2,66,0.00,,,0.00,0.0,WeatherDisplay:10.37,2013-08-06 11:21:00,
2013-08-06 04:25:00,55.4,44.6,30.02,SSE,165,3.5,3.5,67,0.00,,,0.00,0.0,WeatherDisplay:10.37,2013-08-06 11:25:00,
2013-08-06 04:26:00,55.4,44.6,30.02,SSE,165,1.2,1.2,67,0.00,,,0.00,0.0,WeatherDisplay:10.37,2013-08-06 11:26:00,
2013-08-06 04:27:00,55.4,44.6,30.02,SSE,165,1.2,1.2,67,0.00,,,0.00,0.0,WeatherDisplay:10.37,2013-08-06 11:27:00,
2013-08-06 04:30:00,55.3,44.5,30.02,SSE,165,1.2,1.2,67,0.00,,,0.00,0.0,WeatherDisplay:10.37,2013-08-06 11:30:00,
2013-08-06 04:31:00,55.4,44.2,30.02,SSE,165,1.2,0.0,66,0.00,,,0.00,0.0,WeatherDisplay:10.37,2013-08-06 11:31:00,
2013-08-06 04:32:00,55.4,44.2,30.02,SSE,165,0.0,0.0,66,0.00,,,0.00,0.0,WeatherDisplay:10.37,2013-08-06 11:32:00,
2013-08-06 04:35:00,55.3,43.7,30.02,SSE,165,1.2,0.0,65,0.00,,,0.00,0.0,WeatherDisplay:10.37,2013-08-06 11:35:00,
2013-08-06 04:36:00,55.2,43.6,30.02,SSE,165,0.0,0.0,65,0.00,,,0.00,0.0,WeatherDisplay:10.37,2013-08-06 11:36:00,
2013-08-06 04:37:00,55.2,43.6,30.02,SSE,165,1.2,1.2,65,0.00,,,0.00,0.0,WeatherDisplay:10.37,2013-08-06 11:37:00,
2013-08-06 04:40:00,54.9,43.4,30.02,SSE,165,2.3,2.3,65,0.00,,,0.00,0.0,WeatherDisplay:10.37,2013-08-06 11:40:00,
2013-08-06 04:43:00,54.7,43.2,30.02,SSE,165,1.2,1.2,65,0.00,,,0.00,0.0,WeatherDisplay:10.37,2013-08-06 11:43:00,
2013-08-06 04:46:00,54.8,43.3,30.02,SSE,165,2.3,2.3,65,0.00,,,0.00,0.0,WeatherDisplay:10.37,2013-08-06 11:46:00,
2013-08-06 04:48:00,54.8,43.3,30.02,SSE,165,1.2,1.2,65,0.00,,,0.00,0.0,WeatherDisplay:10.37,2013-08-06 11:48:00,
2013-08-06 04:49:00,54.8,43.3,30.02,SSE,165,1.2,1.2,65,0.00,,,0.00,0.0,WeatherDisplay:10.37,2013-08-06 11:49:00,
2013-08-06 04:51:00,54.8,43.3,30.02,SSE,165,1.2,1.2,65,0.00,,,0.00,0.0,WeatherDisplay:10.37,2013-08-06 11:51:00,
2013-08-06 04:53:00,54.7,43.2,30.02,SSE,165,1.2,1.2,65,0.00,,,0.00,0.0,WeatherDisplay:10.37,2013-08-06 11:53:00,
2013-08-06 04:55:00,54.8,43.3,30.02,SSE,165,1.2,1.2,65,0.00,,,0.00,0.0,WeatherDisplay:10.37,2013-08-06 11:55:00,
2013-08-06 04:56:00,54.7,43.2,30.02,SSE,165,1.2,1.2,65,0.00,,,0.00,0.0,WeatherDisplay:10.37,2013-08-06 11:56:00,
2013-08-06 04:59:00,54.4,42.9,30.02,SSE,165,1.2,0.0,65,0.00,,,0.00,0.0,WeatherDisplay:10.37,2013-08-06 11:59:00,
2013-08-06 05:01:00,54.2,42.7,30.02,SSE,165,1.2,1.2,65,0.00,,,0.00,0.0,WeatherDisplay:10.37,2013-08-06 12:01:00,
2013-08-06 05:02:00,54.1,42.6,30.02,SSE,165,1.2,0.0,65,0.00,,,0.00,0.0,WeatherDisplay:10.37,2013-08-06 12:02:00,
2013-08-06 05:04:00,53.9,42.8,30.02,SSE,165,0.0,0.1,66,0.00,,,0.00,0.0,WeatherDisplay:10.37,2013-08-06 12:04:00,
2013-08-06 05:06:00,54.0,42.9,30.02,SSE,165,1.2,1.2,66,0.00,,,0.00,0.0,WeatherDisplay:10.37,2013-08-06 12:06:00,
2013-08-06 05:07:00,54.0,42.9,30.02,SSE,165,1.2,1.2,66,0.00,,,0.00,0.0,WeatherDisplay:10.37,2013-08-06 12:07:00,
2013-08-06 05:08:00,54.0,42.9,30.02,SSE,165,1.2,0.0,66,0.00,,,0.00,0.0,WeatherDisplay:10.37,2013-08-06 12:08:00,
2013-08-06 05:09:00,54.1,43.0,30.02,SSE,165,1.2,1.2,66,0.00,,,0.00,0.0,WeatherDisplay:10.37,2013-08-06 12:09:00,
2013-08-06 05:12:00,54.1,43.0,30.02,SSE,165,1.2,1.2,66,0.00,,,0.00,0.0,WeatherDisplay:10.37,2013-08-06 12:12:00,
2013-08-06 05:13:00,54.0,42.9,30.02,SSE,165,1.2,1.2,66,0.00,,,0.00,0.0,WeatherDisplay:10.37,2013-08-06 12:13:00,
2013-08-06 05:15:00,53.8,42.7,30.02,SSE,165,2.3,2.3,66,0.00,,,0.00,0.0,WeatherDisplay:10.37,2013-08-06 12:15:00,
2013-08-06 05:17:00,53.7,42.6,30.02,SSE,165,1.2,0.0,66,0.00,,,0.00,0.0,WeatherDisplay:10.37,2013-08-06 12:17:00,
2013-08-06 05:18:00,53.6,42.5,30.02,SSE,165,1.2,1.2,66,0.00,,,0.00,0.0,WeatherDisplay:10.37,2013-08-06 12:18:00,
2013-08-06 05:20:00,53.3,42.2,30.02,SSE,165,2.3,2.3,66,0.00,,,0.00,0.0,WeatherDisplay:10.37,2013-08-06 12:20:00,
2013-08-06 05:22:00,53.2,42.5,30.02,SSE,165,2.3,2.3,67,0.00,,,0.00,0.0,WeatherDisplay:10.37,2013-08-06 12:22:00,
2013-08-06 05:23:00,53.1,42.4,30.02,SSE,165,1.2,1.2,67,0.00,,,0.00,0.0,WeatherDisplay:10.37,2013-08-06 12:23:00,
2013-08-06 05:25:00,53.0,42.3,30.02,SSE,165,1.2,1.2,67,0.00,,,0.00,0.0,WeatherDisplay:10.37,2013-08-06 12:25:00,
2013-08-06 05:27:00,52.9,42.2,30.02,SSE,165,1.2,1.2,67,0.00,,,0.00,0.0,WeatherDisplay:10.37,2013-08-06 12:27:00,
2013-08-06 05:29:00,52.8,42.1,30.02,SSE,165,1.2,1.2,67,0.00,,,0.00,0.0,WeatherDisplay:10.37,2013-08-06 12:29:00,
2013-08-06 05:30:00,52.7,42.0,30.02,SSE,165,1.2,0.0,67,0.00,,,0.00,0.0,WeatherDisplay:10.37,2013-08-06 12:30:00,
2013-08-06 05:31:00,52.6,41.9,30.02,SSE,165,1.0,0.0,67,0.00,,,0.00,0.0,WeatherDisplay:10.37,2013-08-06 12:31:00,
2013-08-06 05:33:00,52.7,42.0,30.02,SSE,165,0.0,0.0,67,0.00,,,0.00,0.0,WeatherDisplay:10.37,2013-08-06 12:33:00,
2013-08-06 05:34:00,52.7,42.0,30.02,SSE,165,1.2,0.0,67,0.00,,,0.00,0.0,WeatherDisplay:10.37,2013-08-06 12:34:00,
2013-08-06 05:35:00,52.8,42.1,30.02,SSE,165,0.0,0.0,67,0.00,,,0.00,0.0,WeatherDisplay:10.37,2013-08-06 12:35:00,
2013-08-06 05:36:00,52.8,41.7,30.02,SSE,165,0.0,0.0,66,0.00,,,0.00,0.0,WeatherDisplay:10.37,2013-08-06 12:36:00,
2013-08-06 05:38:00,52.8,41.7,30.02,SSE,165,1.2,1.2,66,0.00,,,0.00,0.0,WeatherDisplay:10.37,2013-08-06 12:38:00,
2013-08-06 05:39:00,52.7,41.7,30.02,SSE,165,2.0,2.0,66,0.00,,,0.00,0.0,WeatherDisplay:10.37,2013-08-06 12:39:00,
2013-08-06 05:40:00,52.6,41.6,30.02,SSE,165,2.3,2.3,66,0.00,,,0.00,0.0,WeatherDisplay:10.37,2013-08-06 12:40:00,
2013-08-06 05:41:00,52.3,41.7,30.02,SSE,165,1.2,0.0,67,0.00,,,0.00,0.0,WeatherDisplay:10.37,2013-08-06 12:41:00,
2013-08-06 05:42:00,52.3,41.7,30.02,SSE,165,1.2,1.2,67,0.00,,,0.00,0.0,WeatherDisplay:10.37,2013-08-06 12:42:00,
2013-08-06 05:43:00,52.0,41.4,30.02,SSE,165,1.2,1.2,67,0.00,,,0.00,0.0,WeatherDisplay:10.37,2013-08-06 12:43:00,
2013-08-06 05:44:00,52.0,41.8,30.02,SSE,165,1.2,1.2,68,0.00,,,0.00,0.0,WeatherDisplay:10.37,2013-08-06 12:44:00,
2013-08-06 05:45:00,51.9,41.7,30.02,SSE,165,1.2,1.2,68,0.00,,,0.00,0.0,WeatherDisplay:10.37,2013-08-06 12:45:00,
2013-08-06 05:47:00,51.9,41.7,30.02,SSE,165,2.3,2.3,68,0.00,,,0.00,0.0,WeatherDisplay:10.37,2013-08-06 12:47:00,
2013-08-06 05:48:00,51.9,41.7,30.02,SSE,165,2.3,2.3,68,0.00,,,0.00,0.0,WeatherDisplay:10.37,2013-08-06 12:48:00,
2013-08-06 05:49:00,51.9,41.7,30.02,SSE,165,2.3,2.3,68,0.00,,,0.00,0.0,WeatherDisplay:10.37,2013-08-06 12:49:00,
2013-08-06 05:50:00,51.8,41.6,30.02,SSE,165,1.2,1.2,68,0.00,,,0.00,0.0,WeatherDisplay:10.37,2013-08-06 12:50:00,
2013-08-06 05:52:00,51.7,41.5,30.02,SSE,165,2.3,2.3,68,0.00,,,0.00,0.0,WeatherDisplay:10.37,2013-08-06 12:52:00,
2013-08-06 05:53:00,51.7,41.5,30.02,SSE,165,2.3,2.3,68,0.00,,,0.00,0.0,WeatherDisplay:10.37,2013-08-06 12:53:00,
2013-08-06 05:54:00,51.7,41.5,30.02,SSE,165,2.3,2.3,68,0.00,,,0.00,0.0,WeatherDisplay:10.37,2013-08-06 12:54:00,
2013-08-06 05:55:00,51.7,41.5,30.02,SSE,165,1.2,1.2,68,0.00,,,0.00,0.0,WeatherDisplay:10.37,2013-08-06 12:55:00,
2013-08-06 05:57:00,51.7,41.5,30.02,SSE,165,1.2,1.2,68,0.00,,,0.00,0.0,WeatherDisplay:10.37,2013-08-06 12:57:00,
2013-08-06 05:58:00,51.8,41.6,30.02,SSE,165,1.2,0.0,68,0.00,,,0.00,0.0,WeatherDisplay:10.37,2013-08-06 12:58:00,
2013-08-06 05:59:00,51.8,41.9,30.02,SSE,165,1.0,0.0,69,0.00,,,0.00,0.0,WeatherDisplay:10.37,2013-08-06 12:59:00,
2013-08-06 06:00:00,51.9,42.0,30.02,SSE,165,0.0,0.2,69,0.00,,,0.00,6.0,WeatherDisplay:10.37,2013-08-06 13:00:00,
2013-08-06 06:02:00,52.1,41.9,30.02,SSE,165,2.3,2.3,68,0.00,BKN,,0.00,6.0,WeatherDisplay:10.37,2013-08-06 13:02:00,
2013-08-06 06:04:00,52.2,42.0,30.03,SSE,165,2.3,0.0,68,0.00,SCT,,0.00,8.4,WeatherDisplay:10.37,2013-08-06 13:04:00,
2013-08-06 06:05:00,52.3,41.7,30.03,SSE,165,1.2,1.2,67,0.00,BKN,,0.00,8.4,WeatherDisplay:10.37,2013-08-06 13:05:00,
2013-08-06 06:07:00,52.2,41.6,30.02,SSE,165,1.2,1.2,67,0.00,BKN,,0.00,10.8,WeatherDisplay:10.37,2013-08-06 13:07:00,
2013-08-06 06:08:00,52.2,41.6,30.02,SSE,165,1.2,1.2,67,0.00,BKN,,0.00,10.8,WeatherDisplay:10.37,2013-08-06 13:08:00,
2013-08-06 06:09:00,52.1,41.5,30.02,SSE,165,1.2,1.2,67,0.00,SCT,,0.00,13.2,WeatherDisplay:10.37,2013-08-06 13:09:00,
2013-08-06 06:11:00,52.0,41.4,30.02,SSE,165,2.3,2.3,67,0.00,BKN,,0.00,14.4,WeatherDisplay:10.37,2013-08-06 13:11:00,
2013-08-06 06:13:00,52.0,41.8,30.02,SSE,165,1.2,1.2,68,0.00,BKN,,0.00,14.4,WeatherDisplay:10.37,2013-08-06 13:13:00,
2013-08-06 06:14:00,52.0,41.8,30.02,SSE,165,1.2,0.0,68,0.00,BKN,,0.00,16.8,WeatherDisplay:10.37,2013-08-06 13:14:00,
2013-08-06 06:16:00,51.9,41.7,30.03,SSE,165,1.2,0.0,68,0.00,BKN,,0.00,19.2,WeatherDisplay:10.37,2013-08-06 13:16:00,
2013-08-06 06:18:00,51.9,42.0,30.03,SSE,165,1.0,1.0,69,0.00,BKN,,0.00,21.6,WeatherDisplay:10.37,2013-08-06 13:18:00,
2013-08-06 06:19:00,51.9,42.0,30.03,SSE,165,1.2,1.2,69,0.00,BKN,,0.00,21.6,WeatherDisplay:10.37,2013-08-06 13:19:00,
2013-08-06 06:22:00,51.9,42.0,30.03,SSE,165,0.0,0.1,69,0.00,BKN,,0.00,25.2,WeatherDisplay:10.37,2013-08-06 13:22:00,
2013-08-06 06:23:00,51.8,41.9,30.03,SSE,165,1.2,0.0,69,0.00,BKN,,0.00,25.2,WeatherDisplay:10.37,2013-08-06 13:23:00,
2013-08-06 06:24:00,51.9,42.0,30.03,SSE,165,1.2,1.2,69,0.00,BKN,,0.00,27.6,WeatherDisplay:10.37,2013-08-06 13:24:00,
2013-08-06 06:25:00,51.9,42.0,30.03,SSE,165,1.2,1.2,69,0.00,BKN,,0.00,27.6,WeatherDisplay:10.37,2013-08-06 13:25:00,
2013-08-06 06:27:00,52.1,42.2,30.03,SSE,165,1.2,1.2,69,0.00,BKN,,0.00,30.0,WeatherDisplay:10.37,2013-08-06 13:27:00,
2013-08-06 06:29:00,52.2,42.0,30.03,SSE,165,1.2,1.2,68,0.00,BKN,,0.00,33.6,WeatherDisplay:10.37,2013-08-06 13:29:00,
2013-08-06 06:30:00,52.1,41.9,30.03,SSE,165,0.0,2.0,68,0.00,BKN,,0.00,33.6,WeatherDisplay:10.37,2013-08-06 13:30:00,
2013-08-06 06:32:00,52.1,42.2,30.03,SSE,165,2.3,2.3,69,0.00,SCT,,0.00,38.4,WeatherDisplay:10.37,2013-08-06 13:32:00,
2013-08-06 06:34:00,52.2,42.3,30.03,SE,134,3.5,3.5,69,0.00,SCT,,0.00,39.6,WeatherDisplay:10.37,2013-08-06 13:34:00,
2013-08-06 06:35:00,52.2,42.0,30.03,SE,134,3.5,3.5,68,0.00,SCT,,0.00,42.0,WeatherDisplay:10.37,2013-08-06 13:35:00,
2013-08-06 06:38:00,52.3,42.4,30.03,SE,133,3.5,3.5,69,0.00,SCT,,0.00,48.0,WeatherDisplay:10.37,2013-08-06 13:38:00,
2013-08-06 06:39:00,52.3,42.4,30.03,SE,133,3.5,3.5,69,0.00,SCT,,0.00,48.0,WeatherDisplay:10.37,2013-08-06 13:39:00,
2013-08-06 06:40:00,52.4,42.5,30.03,SE,133,1.2,1.2,69,0.00,SCT,,0.00,50.4,WeatherDisplay:10.37,2013-08-06 13:40:00,
2013-08-06 06:41:00,52.4,42.5,30.03,SE,133,1.2,1.2,69,0.00,SCT,,0.00,50.4,WeatherDisplay:10.37,2013-08-06 13:41:00,
2013-08-06 06:43:00,52.7,42.8,30.03,SE,133,2.3,2.3,69,0.00,SCT,,0.00,58.8,WeatherDisplay:10.37,2013-08-06 13:43:00,
2013-08-06 06:44:00,52.8,42.9,30.03,SE,133,2.3,2.3,69,0.00,SCT,,0.00,61.2,WeatherDisplay:10.37,2013-08-06 13:44:00,
2013-08-06 06:45:00,52.8,42.5,30.03,SE,133,1.2,1.2,68,0.00,SCT,,0.00,63.6,WeatherDisplay:10.37,2013-08-06 13:45:00,
2013-08-06 06:46:00,52.9,42.6,30.03,SE,133,1.2,1.2,68,0.00,SCT,,0.00,63.6,WeatherDisplay:10.37,2013-08-06 13:46:00,
2013-08-06 06:48:00,53.1,42.8,30.03,SE,133,1.2,1.2,68,0.00,SCT,,0.00,72.0,WeatherDisplay:10.37,2013-08-06 13:48:00,
2013-08-06 06:49:00,53.1,42.8,30.03,SE,133,1.2,1.2,68,0.00,SCT,,0.00,72.0,WeatherDisplay:10.37,2013-08-06 13:49:00,
2013-08-06 06:50:00,53.2,42.9,30.03,SE,133,1.2,1.2,68,0.00,SCT,,0.00,75.6,WeatherDisplay:10.37,2013-08-06 13:50:00,
2013-08-06 06:51:00,53.2,42.9,30.03,SE,133,1.2,1.2,68,0.00,SCT,,0.00,80.4,WeatherDisplay:10.37,2013-08-06 13:51:00,
2013-08-06 06:53:00,53.5,42.8,30.03,SE,133,2.3,2.3,67,0.00,SCT,,0.00,86.4,WeatherDisplay:10.37,2013-08-06 13:53:00,
2013-08-06 06:54:00,53.5,42.8,30.03,SE,133,2.3,2.3,67,0.00,SCT,,0.00,86.4,WeatherDisplay:10.37,2013-08-06 13:54:00,
2013-08-06 06:56:00,53.7,43.0,30.03,SE,133,2.3,2.3,67,0.00,FEW,,0.00,92.4,WeatherDisplay:10.37,2013-08-06 13:56:00,
2013-08-06 06:57:00,53.8,43.1,30.03,SE,133,3.5,3.5,67,0.00,SCT,,0.00,94.8,WeatherDisplay:10.37,2013-08-06 13:57:00,
2013-08-06 06:58:00,54.0,43.3,30.03,SE,132,3.5,3.5,67,0.00,SCT,,0.00,103.2,WeatherDisplay:10.37,2013-08-06 13:58:00,
2013-08-06 06:59:00,54.1,43.4,30.04,SE,132,2.3,2.3,67,0.00,SCT,,0.00,105.6,WeatherDisplay:10.37,2013-08-06 13:59:00,
2013-08-06 07:01:00,54.3,43.2,30.04,SE,132,2.3,2.3,66,0.00,FEW,,0.00,111.6,WeatherDisplay:10.37,2013-08-06 14:01:00,
2013-08-06 07:02:00,54.3,43.2,30.04,SE,132,2.3,2.3,66,0.00,FEW,,0.00,111.6,WeatherDisplay:10.37,2013-08-06 14:02:00,
2013-08-06 07:03:00,54.4,43.3,30.04,SE,132,1.2,1.2,66,0.00,FEW,,0.00,114.0,WeatherDisplay:10.37,2013-08-06 14:03:00,
2013-08-06 07:04:00,54.4,43.3,30.04,SE,132,0.0,0.1,66,0.00,FEW,,0.00,116.4,WeatherDisplay:10.37,2013-08-06 14:04:00,
2013-08-06 07:05:00,54.4,43.3,30.04,SE,132,0.0,0.3,66,0.00,FEW,,0.00,116.4,WeatherDisplay:10.37,2013-08-06 14:05:00,
2013-08-06 07:06:00,54.5,43.4,30.04,SE,132,1.2,1.2,66,0.00,FEW,,0.00,122.4,WeatherDisplay:10.37,2013-08-06 14:06:00,
2013-08-06 07:07:00,54.5,43.4,30.04,SE,132,1.2,0.0,66,0.00,FEW,,0.00,122.4,WeatherDisplay:10.37,2013-08-06 14:07:00,
2013-08-06 07:08:00,54.7,43.6,30.04,SE,132,1.2,1.2,66,0.00,FEW,,0.00,126.0,WeatherDisplay:10.37,2013-08-06 14:08:00,
2013-08-06 07:10:00,54.8,43.7,30.04,SE,132,1.2,1.2,66,0.00,FEW,,0.00,130.8,WeatherDisplay:10.37,2013-08-06 14:10:00,
2013-08-06 07:12:00,55.0,43.8,30.04,SE,132,1.2,1.2,66,0.00,FEW,,0.00,133.2,WeatherDisplay:10.37,2013-08-06 14:12:00,
2013-08-06 07:13:00,55.3,43.7,30.04,SE,132,1.2,1.2,65,0.00,FEW,,0.00,136.8,WeatherDisplay:10.37,2013-08-06 14:13:00,
2013-08-06 07:15:00,55.6,44.0,30.04,SE,132,1.2,1.2,65,0.00,FEW,,0.00,144.0,WeatherDisplay:10.37,2013-08-06 14:15:00,
2013-08-06 07:16:00,55.8,43.8,30.04,SE,132,1.2,0.0,64,0.00,FEW,,0.00,150.0,WeatherDisplay:10.37,2013-08-06 14:16:00,
2013-08-06 07:17:00,55.9,43.9,30.04,SE,132,1.2,1.2,64,0.00,FEW,,0.00,150.0,WeatherDisplay:10.37,2013-08-06 14:17:00,
2013-08-06 07:18:00,56.0,44.0,30.04,SE,132,2.3,2.3,64,0.00,FEW,,0.00,153.6,WeatherDisplay:10.37,2013-08-06 14:18:00,
2013-08-06 07:19:00,56.0,44.0,30.04,SE,132,2.3,0.0,64,0.00,FEW,,0.00,156.0,WeatherDisplay:10.37,2013-08-06 14:19:00,
2013-08-06 07:20:00,56.3,43.9,30.04,SE,132,2.3,2.3,63,0.00,FEW,,0.00,162.0,WeatherDisplay:10.37,2013-08-06 14:20:00,
2013-08-06 07:22:00,56.6,44.1,30.04,SE,132,1.2,1.2,63,0.00,FEW,,0.00,169.2,WeatherDisplay:10.37,2013-08-06 14:22:00,
2013-08-06 07:23:00,56.8,44.3,30.04,SE,132,1.2,0.0,63,0.00,FEW,,0.00,170.4,WeatherDisplay:10.37,2013-08-06 14:23:00,
2013-08-06 07:24:00,56.9,44.4,30.04,SE,132,1.2,0.0,63,0.00,FEW,,0.00,172.8,WeatherDisplay:10.37,2013-08-06 14:24:00,
2013-08-06 07:27:00,57.3,44.4,30.04,SE,132,1.2,1.2,62,0.00,CLR,,0.00,183.6,WeatherDisplay:10.37,2013-08-06 14:27:00,
2013-08-06 07:28:00,57.4,44.5,30.04,SE,132,1.2,1.2,62,0.00,CLR,,0.00,187.2,WeatherDisplay:10.37,2013-08-06 14:28:00,
2013-08-06 07:29:00,57.5,44.6,30.04,SE,132,1.2,0.0,62,0.00,CLR,,0.00,192.0,WeatherDisplay:10.37,2013-08-06 14:29:00,
2013-08-06 07:32:00,58.0,45.0,30.04,SE,132,1.2,1.2,62,0.00,CLR,,0.00,205.2,WeatherDisplay:10.37,2013-08-06 14:32:00,
2013-08-06 07:33:00,58.1,44.7,30.04,SE,132,1.2,1.2,61,0.00,CLR,,0.00,206.4,WeatherDisplay:10.37,2013-08-06 14:33:00,
2013-08-06 07:34:00,58.1,44.7,30.04,SE,132,1.2,1.2,61,0.00,CLR,,0.00,211.2,WeatherDisplay:10.37,2013-08-06 14:34:00,
2013-08-06 07:37:00,58.2,44.8,30.04,SE,132,1.2,1.2,61,0.00,CLR,,0.00,223.2,WeatherDisplay:10.37,2013-08-06 14:37:00,
2013-08-06 07:38:00,58.3,44.9,30.04,SE,132,1.2,1.2,61,0.00,CLR,,0.00,228.0,WeatherDisplay:10.37,2013-08-06 14:38:00,
2013-08-06 07:39:00,58.4,45.0,30.04,SE,132,1.2,1.2,61,0.00,CLR,,0.00,230.4,WeatherDisplay:10.37,2013-08-06 14:39:00,
2013-08-06 07:42:00,59.1,45.2,30.04,SE,132,2.0,2.0,60,0.00,CLR,,0.00,238.8,WeatherDisplay:10.37,2013-08-06 14:42:00,
2013-08-06 07:44:00,59.3,45.0,30.04,SE,132,2.3,2.3,59,0.00,CLR,,0.00,242.4,WeatherDisplay:10.37,2013-08-06 14:44:00,
2013-08-06 07:48:00,60.1,45.7,30.05,SE,132,2.3,2.3,59,0.00,CLR,,0.00,256.8,WeatherDisplay:10.37,2013-08-06 14:48:00,
2013-08-06 07:49:00,60.3,45.5,30.04,SE,132,1.2,1.2,58,0.00,CLR,,0.00,261.6,WeatherDisplay:10.37,2013-08-06 14:49:00,
2013-08-06 07:54:00,61.4,46.0,30.04,SE,132,0.0,0.0,57,0.00,CLR,,0.00,284.4,WeatherDisplay:10.37,2013-08-06 14:54:00,
2013-08-06 07:55:00,61.6,45.7,30.04,SE,132,0.0,0.0,56,0.00,CLR,,0.00,291.6,WeatherDisplay:10.37,2013-08-06 14:55:00,
2013-08-06 07:59:00,62.8,46.4,30.04,SE,132,1.2,1.2,55,0.00,CLR,,0.00,308.4,WeatherDisplay:10.37,2013-08-06 14:59:00,
2013-08-06 08:00:00,62.9,46.5,30.04,SE,132,1.2,1.2,55,0.00,CLR,,0.00,312.0,WeatherDisplay:10.37,2013-08-06 15:00:00,
2013-08-06 08:04:00,63.6,46.6,30.04,SE,132,3.5,3.5,54,0.00,CLR,,0.00,328.8,WeatherDisplay:10.37,2013-08-06 15:04:00,
2013-08-06 08:05:00,63.6,46.6,30.04,SE,132,3.5,3.5,54,0.00,CLR,,0.00,328.8,WeatherDisplay:10.37,2013-08-06 15:05:00,
2013-08-06 08:06:00,63.7,46.7,30.04,SE,130,2.3,2.3,54,0.00,CLR,,0.00,334.8,WeatherDisplay:10.37,2013-08-06 15:06:00,
2013-08-06 08:10:00,64.1,46.6,30.04,SE,128,3.5,3.5,53,0.00,CLR,,0.00,348.0,WeatherDisplay:10.37,2013-08-06 15:10:00,
2013-08-06 08:11:00,64.2,46.7,30.04,SE,129,3.5,3.5,53,0.00,CLR,,0.00,350.4,WeatherDisplay:10.37,2013-08-06 15:11:00,
2013-08-06 08:15:00,64.3,46.8,30.04,SE,142,3.5,3.5,53,0.00,CLR,,0.00,362.4,WeatherDisplay:10.37,2013-08-06 15:15:00,
2013-08-06 08:16:00,64.4,46.9,30.04,SSE,148,3.5,3.5,53,0.00,CLR,,0.00,370.8,WeatherDisplay:10.37,2013-08-06 15:16:00,
2013-08-06 08:17:00,64.4,46.4,30.04,SSE,147,3.5,3.5,52,0.00,CLR,,0.00,370.8,WeatherDisplay:10.37,2013-08-06 15:17:00,
2013-08-06 08:20:00,64.9,46.8,30.04,SE,143,3.5,3.5,52,0.00,CLR,,0.00,378.0,WeatherDisplay:10.37,2013-08-06 15:20:00,
2013-08-06 08:21:00,65.1,47.0,30.04,SE,124,4.6,4.6,52,0.00,CLR,,0.00,381.6,WeatherDisplay:10.37,2013-08-06 15:21:00,
2013-08-06 08:22:00,65.2,46.6,30.04,SE,131,4.6,4.6,51,0.00,CLR,,0.00,384.0,WeatherDisplay:10.37,2013-08-06 15:22:00,
2013-08-06 08:25:00,65.6,47.0,30.04,SE,145,3.5,3.5,51,0.00,CLR,,0.00,396.0,WeatherDisplay:10.37,2013-08-06 15:25:00,
2013-08-06 08:26:00,65.5,46.4,30.04,SE,145,3.5,3.5,50,0.00,CLR,,0.00,398.4,WeatherDisplay:10.37,2013-08-06 15:26:00,
2013-08-06 08:27:00,65.7,47.1,30.04,SE,145,3.5,3.5,51,0.00,CLR,,0.00,403.2,WeatherDisplay:10.37,2013-08-06 15:27:00,
2013-08-06 08:30:00,66.2,46.5,30.04,SSE,157,3.5,3.5,49,0.00,CLR,,0.00,420.0,WeatherDisplay:10.37,2013-08-06 15:30:00,
2013-08-06 08:31:00,66.2,46.5,30.04,SSE,157,4.0,4.0,49,0.00,CLR,,0.00,428.4,WeatherDisplay:10.37,2013-08-06 15:31:00,
2013-08-06 08:32:00,66.2,46.5,30.04,SSE,163,3.5,3.5,49,0.00,CLR,,0.00,430.8,WeatherDisplay:10.37,2013-08-06 15:32:00,
2013-08-06 08:33:00,66.3,46.6,30.04,SSE,167,3.5,3.5,49,0.00,CLR,,0.00,434.4,WeatherDisplay:10.37,2013-08-06 15:33:00,
2013-08-06 08:35:00,67.0,46.7,30.04,ESE,121,3.5,3.5,48,0.00,CLR,,0.00,440.4,WeatherDisplay:10.37,2013-08-06 15:35:00,
2013-08-06 08:36:00,67.2,46.8,30.04,ESE,121,4.0,4.0,48,0.00,CLR,,0.00,442.8,WeatherDisplay:10.37,2013-08-06 15:36:00,
2013-08-06 08:37:00,67.6,46.6,30.04,SE,130,4.6,4.6,47,0.00,CLR,,0.00,440.4,WeatherDisplay:10.37,2013-08-06 15:37:00,
2013-08-06 08:38:00,67.7,46.7,30.04,SE,131,3.5,3.5,47,0.00,CLR,,0.00,447.6,WeatherDisplay:10.37,2013-08-06 15:38:00,
2013-08-06 08:40:00,68.2,46.0,30.04,SE,131,3.5,3.5,45,0.00,CLR,,0.00,457.2,WeatherDisplay:10.37,2013-08-06 15:40:00,
2013-08-06 08:41:00,68.3,46.1,30.04,ESE,122,3.5,3.5,45,0.00,CLR,,0.00,462.0,WeatherDisplay:10.37,2013-08-06 15:41:00,
2013-08-06 08:42:00,68.4,46.2,30.04,ESE,115,4.6,4.6,45,0.00,CLR,,0.00,464.4,WeatherDisplay:10.37,2013-08-06 15:42:00,
2013-08-06 08:43:00,68.4,46.2,30.04,ESE,123,4.6,4.6,45,0.00,CLR,,0.00,464.4,WeatherDisplay:10.37,2013-08-06 15:43:00,
2013-08-06 08:46:00,69.1,46.3,30.04,SE,129,8.1,8.1,44,0.00,CLR,,0.00,472.8,WeatherDisplay:10.37,2013-08-06 15:46:00,
2013-08-06 08:47:00,69.4,46.5,30.04,ESE,116,4.6,4.6,44,0.00,CLR,,0.00,470.4,WeatherDisplay:10.37,2013-08-06 15:47:00,
2013-08-06 08:48:00,69.4,46.5,30.04,ESE,116,4.6,4.6,44,0.00,CLR,,0.00,470.4,WeatherDisplay:10.37,2013-08-06 15:48:00,
2013-08-06 08:51:00,69.7,46.2,30.04,SE,144,4.6,4.6,43,0.00,CLR,,0.00,483.6,WeatherDisplay:10.37,2013-08-06 15:51:00,
2013-08-06 08:52:00,69.7,46.2,30.04,SE,144,4.6,4.6,43,0.00,CLR,,0.00,483.6,WeatherDisplay:10.37,2013-08-06 15:52:00,
2013-08-06 08:53:00,69.3,46.4,30.04,SE,144,4.6,4.6,44,0.00,CLR,,0.00,481.2,WeatherDisplay:10.37,2013-08-06 15:53:00,
2013-08-06 08:56:00,69.7,46.8,30.04,East,101,5.0,5.0,44,0.00,CLR,,0.00,495.6,WeatherDisplay:10.37,2013-08-06 15:56:00,
2013-08-06 08:57:00,70.3,46.7,30.04,East,94,5.8,5.8,43,0.00,CLR,,0.00,495.6,WeatherDisplay:10.37,2013-08-06 15:57:00,
2013-08-06 08:58:00,70.3,46.7,30.04,East,96,5.8,5.8,43,0.00,CLR,,0.00,495.6,WeatherDisplay:10.37,2013-08-06 15:58:00,
2013-08-06 08:59:00,70.5,46.3,30.04,ESE,114,4.6,4.6,42,0.00,CLR,,0.00,501.6,WeatherDisplay:10.37,2013-08-06 15:59:00,
2013-08-06 09:01:00,71.0,46.7,30.04,ESE,112,4.6,4.6,42,0.00,CLR,,0.00,514.8,WeatherDisplay:10.37,2013-08-06 16:01:00,
2013-08-06 09:03:00,71.3,46.4,30.04,ESE,115,4.6,4.6,41,0.00,CLR,,0.00,518.4,WeatherDisplay:10.37,2013-08-06 16:03:00,
2013-08-06 09:04:00,71.3,46.4,30.04,ESE,114,4.6,4.6,41,0.00,CLR,,0.00,520.8,WeatherDisplay:10.37,2013-08-06 16:04:00,
2013-08-06 09:05:00,71.2,46.3,30.04,ESE,103,3.5,3.5,41,0.00,CLR,,0.00,526.8,WeatherDisplay:10.37,2013-08-06 16:05:00,
2013-08-06 09:06:00,71.1,46.2,30.04,ESE,103,2.3,2.3,41,0.00,CLR,,0.00,537.6,WeatherDisplay:10.37,2013-08-06 16:06:00,
2013-08-06 09:08:00,71.4,46.5,30.04,SE,132,5.8,5.8,41,0.00,CLR,,0.00,540.0,WeatherDisplay:10.37,2013-08-06 16:08:00,
2013-08-06 09:09:00,71.4,46.5,30.04,ESE,111,8.1,8.1,41,0.00,CLR,,0.00,540.0,WeatherDisplay:10.37,2013-08-06 16:09:00,
2013-08-06 09:10:00,71.9,46.9,30.04,ESE,110,3.5,3.5,41,0.00,CLR,,0.00,546.0,WeatherDisplay:10.37,2013-08-06 16:10:00,
2013-08-06 09:11:00,72.0,46.3,30.05,ESE,110,3.5,3.5,40,0.00,CLR,,0.00,550.8,WeatherDisplay:10.37,2013-08-06 16:11:00,
2013-08-06 09:13:00,72.1,46.4,30.05,ESE,109,3.5,3.5,40,0.00,CLR,,0.00,556.8,WeatherDisplay:10.37,2013-08-06 16:13:00,
2013-08-06 09:14:00,72.2,46.5,30.04,East,85,3.5,3.5,40,0.00,CLR,,0.00,556.8,WeatherDisplay:10.37,2013-08-06 16:14:00,
2013-08-06 09:15:00,72.4,46.7,30.05,East,89,4.6,4.6,40,0.00,CLR,,0.00,559.2,WeatherDisplay:10.37,2013-08-06 16:15:00,
2013-08-06 09:16:00,72.5,46.8,30.05,East,94,5.0,5.0,40,0.00,CLR,,0.00,561.6,WeatherDisplay:10.37,2013-08-06 16:16:00,
2013-08-06 09:18:00,72.9,46.5,30.04,East,101,3.5,3.5,39,0.00,CLR,,0.00,571.2,WeatherDisplay:10.37,2013-08-06 16:18:00,
2013-08-06 09:19:00,73.2,46.8,30.04,ESE,107,3.5,3.5,39,0.00,CLR,,0.00,578.4,WeatherDisplay:10.37,2013-08-06 16:19:00,
2013-08-06 09:20:00,73.2,46.1,30.04,ESE,107,1.2,1.2,38,0.00,CLR,,0.00,584.4,WeatherDisplay:10.37,2013-08-06 16:20:00,
2013-08-06 09:21:00,73.1,46.0,30.04,ESE,107,1.2,1.2,38,0.00,CLR,,0.00,584.4,WeatherDisplay:10.37,2013-08-06 16:21:00,
2013-08-06 09:22:00,73.0,46.6,30.04,ESE,103,3.5,3.5,39,0.00,CLR,,0.00,590.4,WeatherDisplay:10.37,2013-08-06 16:22:00,
2013-08-06 09:23:00,73.2,46.8,30.04,East,98,6.9,6.9,39,0.00,CLR,,0.00,592.8,WeatherDisplay:10.37,2013-08-06 16:23:00,
2013-08-06 09:24:00,73.3,46.8,30.04,East,96,6.9,6.9,39,0.00,CLR,,0.00,596.4,WeatherDisplay:10.37,2013-08-06 16:24:00,
2013-08-06 09:25:00,73.4,46.9,30.04,ESE,113,5.0,5.0,39,0.00,CLR,,0.00,603.6,WeatherDisplay:10.37,2013-08-06 16:25:00,
2013-08-06 09:26:00,73.5,47.0,30.04,ESE,121,8.1,8.1,39,0.00,CLR,,0.00,607.2,WeatherDisplay:10.37,2013-08-06 16:26:00,
2013-08-06 09:27:00,73.6,47.1,30.04,ESE,123,4.6,4.6,39,0.00,CLR,,0.00,609.6,WeatherDisplay:10.37,2013-08-06 16:27:00,
2013-08-06 09:29:00,73.7,46.5,30.04,ESE,123,2.3,2.3,38,0.00,CLR,,0.00,612.0,WeatherDisplay:10.37,2013-08-06 16:29:00,
2013-08-06 09:30:00,73.7,47.2,30.04,SE,126,4.6,4.6,39,0.00,CLR,,0.00,620.4,WeatherDisplay:10.37,2013-08-06 16:30:00,
2013-08-06 09:31:00,73.9,47.4,30.04,East,92,4.6,4.6,39,0.00,CLR,,0.00,624.0,WeatherDisplay:10.37,2013-08-06 16:31:00,
2013-08-06 09:32:00,74.0,47.5,30.04,East,99,4.6,4.6,39,0.00,CLR,,0.00,626.4,WeatherDisplay:10.37,2013-08-06 16:32:00,
2013-08-06 09:34:00,74.3,47.0,30.04,East,94,4.6,4.6,38,0.00,CLR,,0.00,628.8,WeatherDisplay:10.37,2013-08-06 16:34:00,
2013-08-06 09:35:00,74.5,47.2,30.04,East,90,5.8,5.8,38,0.00,CLR,,0.00,628.8,WeatherDisplay:10.37,2013-08-06 16:35:00,
2013-08-06 09:36:00,74.4,47.1,30.04,NNE,32,6.9,6.9,38,0.00,CLR,,0.00,637.2,WeatherDisplay:10.37,2013-08-06 16:36:00,
2013-08-06 09:37:00,74.3,47.0,30.04,NE,55,6.9,6.9,38,0.00,CLR,,0.00,637.2,WeatherDisplay:10.37,2013-08-06 16:37:00,
2013-08-06 09:39:00,74.5,46.5,30.04,ENE,63,3.5,3.5,37,0.00,CLR,,0.00,643.2,WeatherDisplay:10.37,2013-08-06 16:39:00,
2013-08-06 09:40:00,74.2,47.0,30.04,SE,130,3.5,3.5,38,0.00,CLR,,0.00,649.2,WeatherDisplay:10.37,2013-08-06 16:40:00,
2013-08-06 09:41:00,74.3,47.0,30.03,ESE,112,5.8,5.8,38,0.00,CLR,,0.00,651.6,WeatherDisplay:10.37,2013-08-06 16:41:00,
2013-08-06 09:42:00,74.5,47.2,30.04,ESE,112,5.8,5.8,38,0.00,CLR,,0.00,656.4,WeatherDisplay:10.37,2013-08-06 16:42:00,
2013-08-06 09:44:00,74.8,47.5,30.04,ESE,109,2.3,2.3,38,0.00,CLR,,0.00,664.8,WeatherDisplay:10.37,2013-08-06 16:44:00,
2013-08-06 09:45:00,75.1,47.0,30.04,ESE,122,2.3,2.3,37,0.00,CLR,,0.00,675.6,WeatherDisplay:10.37,2013-08-06 16:45:00,
2013-08-06 09:47:00,75.7,47.6,30.03,ESE,115,3.0,3.0,37,0.00,CLR,,0.00,676.8,WeatherDisplay:10.37,2013-08-06 16:47:00,
2013-08-06 09:48:00,75.9,47.0,30.03,SE,137,8.1,8.1,36,0.00,CLR,,0.00,681.6,WeatherDisplay:10.37,2013-08-06 16:48:00,
2013-08-06 09:49:00,75.9,47.0,30.03,ESE,119,3.5,3.5,36,0.00,CLR,,0.00,681.6,WeatherDisplay:10.37,2013-08-06 16:49:00,
2013-08-06 09:51:00,75.8,46.9,30.03,ESE,118,3.5,3.5,36,0.00,CLR,,0.00,684.0,WeatherDisplay:10.37,2013-08-06 16:51:00,
2013-08-06 09:53:00,75.9,47.0,30.03,SE,136,2.0,2.0,36,0.00,CLR,,0.00,692.4,WeatherDisplay:10.37,2013-08-06 16:53:00,
2013-08-06 09:54:00,75.8,46.9,30.03,SE,136,3.5,3.5,36,0.00,CLR,,0.00,692.4,WeatherDisplay:10.37,2013-08-06 16:54:00,
2013-08-06 09:55:00,75.0,46.2,30.03,SE,136,1.2,1.2,36,0.00,CLR,,0.00,704.4,WeatherDisplay:10.37,2013-08-06 16:55:00,
2013-08-06 09:56:00,74.7,46.7,30.03,SE,136,1.2,1.2,37,0.00,CLR,,0.00,704.4,WeatherDisplay:10.37,2013-08-06 16:56:00,
2013-08-06 09:58:00,74.2,47.0,30.03,SE,136,1.2,0.0,38,0.00,CLR,,0.00,710.4,WeatherDisplay:10.37,2013-08-06 16:58:00,
2013-08-06 09:59:00,74.1,46.9,30.03,SE,136,0.0,0.0,38,0.00,CLR,,0.00,709.2,WeatherDisplay:10.37,2013-08-06 16:59:00,
2013-08-06 10:01:00,75.0,47.7,30.03,ESE,111,4.0,4.0,38,0.00,CLR,,0.00,712.8,WeatherDisplay:10.37,2013-08-06 17:01:00,
2013-08-06 10:02:00,75.5,47.4,30.03,ESE,107,4.0,4.0,37,0.00,CLR,,0.00,715.2,WeatherDisplay:10.37,2013-08-06 17:02:00,
2013-08-06 10:03:00,76.0,47.1,30.03,ESE,112,3.5,3.5,36,0.00,CLR,,0.00,718.8,WeatherDisplay:10.37,2013-08-06 17:03:00,
2013-08-06 10:04:00,76.6,47.6,30.03,East,93,4.6,4.6,36,0.00,CLR,,0.00,723.6,WeatherDisplay:10.37,2013-08-06 17:04:00,
2013-08-06 10:07:00,76.8,47.1,30.03,East,96,1.2,1.2,35,0.00,CLR,,0.00,732.0,WeatherDisplay:10.37,2013-08-06 17:07:00,
2013-08-06 10:09:00,76.5,46.8,30.03,East,84,4.6,4.6,35,0.00,CLR,,0.00,734.4,WeatherDisplay:10.37,2013-08-06 17:09:00,
2013-08-06 10:12:00,75.9,47.0,30.03,NW,310,3.5,3.5,36,0.00,CLR,,0.00,740.4,WeatherDisplay:10.37,2013-08-06 17:12:00,
2013-08-06 10:14:00,75.6,46.8,30.03,NW,310,2.3,2.3,36,0.00,CLR,,0.00,745.2,WeatherDisplay:10.37,2013-08-06 17:14:00,
2013-08-06 10:15:00,75.5,46.7,30.03,NW,310,2.3,2.3,36,0.00,CLR,,0.00,751.2,WeatherDisplay:10.37,2013-08-06 17:15:00,
2013-08-06 10:17:00,75.3,46.5,30.03,NW,309,4.0,4.0,36,0.00,CLR,,0.00,753.6,WeatherDisplay:10.37,2013-08-06 17:17:00,
2013-08-06 10:19:00,76.7,47.7,30.03,SE,128,3.5,3.5,36,0.00,CLR,,0.00,759.6,WeatherDisplay:10.37,2013-08-06 17:19:00,
2013-08-06 10:20:00,76.8,47.8,30.03,ESE,123,3.5,3.5,36,0.00,CLR,,0.00,759.6,WeatherDisplay:10.37,2013-08-06 17:20:00,
2013-08-06 10:22:00,78.5,47.8,30.03,East,98,3.5,3.5,34,0.00,CLR,,0.00,770.4,WeatherDisplay:10.37,2013-08-06 17:22:00,
2013-08-06 10:25:00,79.7,47.2,30.03,ESE,102,3.5,3.5,32,0.00,CLR,,0.00,778.8,WeatherDisplay:10.37,2013-08-06 17:25:00,
2013-08-06 10:27:00,80.0,46.6,30.03,East,101,2.3,2.3,31,0.00,CLR,,0.00,784.8,WeatherDisplay:10.37,2013-08-06 17:27:00,
2013-08-06 10:28:00,79.7,46.4,30.03,East,101,2.3,2.3,31,0.00,CLR,,0.00,788.4,WeatherDisplay:10.37,2013-08-06 17:28:00,
2013-08-06 10:30:00,78.3,46.8,30.03,East,98,2.0,2.0,33,0.00,CLR,,0.00,790.8,WeatherDisplay:10.37,2013-08-06 17:30:00,
2013-08-06 10:32:00,77.8,46.4,30.03,WNW,290,3.5,3.5,33,0.00,CLR,,0.00,799.2,WeatherDisplay:10.37,2013-08-06 17:32:00,
2013-08-06 10:34:00,78.0,46.6,30.03,NW,310,3.5,3.5,33,0.00,CLR,,0.00,805.2,WeatherDisplay:10.37,2013-08-06 17:34:00,
2013-08-06 10:35:00,77.9,46.5,30.03,NNE,22,1.0,5.0,33,0.00,CLR,,0.00,805.2,WeatherDisplay:10.37,2013-08-06 17:35:00,
2013-08-06 10:36:00,77.6,46.2,30.03,NNW,348,2.3,2.3,33,0.00,CLR,,0.00,805.2,WeatherDisplay:10.37,2013-08-06 17:36:00,
2013-08-06 10:37:00,77.2,45.9,30.03,NNW,338,3.5,3.5,33,0.00,CLR,,0.00,810.0,WeatherDisplay:10.37,2013-08-06 17:37:00,
2013-08-06 10:38:00,77.2,46.7,30.03,NNW,338,3.5,3.5,34,0.00,CLR,,0.00,810.0,WeatherDisplay:10.37,2013-08-06 17:38:00,
2013-08-06 10:39:00,77.3,46.7,30.03,ENE,73,4.6,4.6,34,0.00,CLR,,0.00,818.4,WeatherDisplay:10.37,2013-08-06 17:39:00,
2013-08-06 10:40:00,77.4,46.8,30.03,NNW,342,2.0,5.0,34,0.00,CLR,,0.00,820.8,WeatherDisplay:10.37,2013-08-06 17:40:00,
2013-08-06 10:41:00,77.9,47.3,30.03,East,82,4.6,4.6,34,0.00,CLR,,0.00,818.4,WeatherDisplay:10.37,2013-08-06 17:41:00,
2013-08-06 10:43:00,79.2,47.6,30.03,SE,136,4.6,4.6,33,0.00,CLR,,0.00,824.4,WeatherDisplay:10.37,2013-08-06 17:43:00,
2013-08-06 10:44:00,79.8,47.3,30.03,WNW,292,5.0,5.0,32,0.00,CLR,,0.00,826.8,WeatherDisplay:10.37,2013-08-06 17:44:00,
2013-08-06 10:45:00,79.8,47.3,30.03,WNW,292,4.6,4.6,32,0.00,CLR,,0.00,829.2,WeatherDisplay:10.37,2013-08-06 17:45:00,
2013-08-06 10:46:00,79.7,47.2,30.03,West,276,4.6,4.6,32,0.00,CLR,,0.00,832.8,WeatherDisplay:10.37,2013-08-06 17:46:00,
2013-08-06 10:48:00,79.5,47.1,30.03,WNW,288,6.9,6.9,32,0.00,CLR,,0.00,835.2,WeatherDisplay:10.37,2013-08-06 17:48:00,
2013-08-06 10:49:00,79.6,47.1,30.03,WNW,286,5.8,5.8,32,0.00,CLR,,0.00,840.0,WeatherDisplay:10.37,2013-08-06 17:49:00,
2013-08-06 10:50:00,79.4,47.0,30.03,WNW,286,5.8,5.8,32,0.00,CLR,,0.00,841.2,WeatherDisplay:10.37,2013-08-06 17:50:00,
2013-08-06 10:52:00,79.6,47.1,30.03,WNW,286,3.5,3.5,32,0.00,CLR,,0.00,843.6,WeatherDisplay:10.37,2013-08-06 17:52:00,
2013-08-06 10:54:00,79.9,47.4,30.03,WNW,286,3.5,3.5,32,0.00,CLR,,0.00,849.6,WeatherDisplay:10.37,2013-08-06 17:54:00,
2013-08-06 10:55:00,79.8,47.3,30.02,WNW,286,3.5,3.5,32,0.00,CLR,,0.00,852.0,WeatherDisplay:10.37,2013-08-06 17:55:00,
2013-08-06 10:56:00,79.9,47.4,30.03,WNW,286,3.5,3.5,32,0.00,CLR,,0.00,856.8,WeatherDisplay:10.37,2013-08-06 17:56:00,
2013-08-06 10:57:00,80.1,47.6,30.02,WNW,286,2.3,2.3,32,0.00,CLR,,0.00,858.0,WeatherDisplay:10.37,2013-08-06 17:57:00,
2013-08-06 10:59:00,80.9,47.4,30.02,WNW,286,3.5,3.5,31,0.00,CLR,,0.00,865.2,WeatherDisplay:10.37,2013-08-06 17:59:00,
2013-08-06 11:00:00,81.2,46.8,30.02,WNW,286,3.5,3.5,30,0.00,CLR,,0.00,865.2,WeatherDisplay:10.37,2013-08-06 18:00:00,
2013-08-06 11:01:00,81.1,46.7,30.02,WNW,286,3.5,3.5,30,0.00,CLR,,0.00,868.8,WeatherDisplay:10.37,2013-08-06 18:01:00,
2013-08-06 11:02:00,81.0,46.6,30.02,WNW,286,4.0,4.0,30,0.00,CLR,,0.00,871.2,WeatherDisplay:10.37,2013-08-06 18:02:00,
2013-08-06 11:04:00,81.1,46.7,30.02,WNW,286,5.0,5.0,30,0.00,CLR,,0.00,873.6,WeatherDisplay:10.37,2013-08-06 18:04:00,
2013-08-06 11:05:00,81.4,47.0,30.02,WNW,286,4.6,4.6,30,0.00,CLR,,0.00,877.2,WeatherDisplay:10.37,2013-08-06 18:05:00,
2013-08-06 11:06:00,81.2,46.8,30.02,WNW,289,4.6,4.6,30,0.00,CLR,,0.00,877.2,WeatherDisplay:10.37,2013-08-06 18:06:00,
2013-08-06 11:08:00,80.6,46.3,30.02,WNW,289,3.5,3.5,30,0.00,CLR,,0.00,884.4,WeatherDisplay:10.37,2013-08-06 18:08:00,
2013-08-06 11:09:00,80.6,46.3,30.02,WNW,289,3.5,3.5,30,0.00,CLR,,0.00,884.4,WeatherDisplay:10.37,2013-08-06 18:09:00,
2013-08-06 11:10:00,80.6,46.3,30.02,WNW,289,3.5,3.5,30,0.00,CLR,,0.00,888.0,WeatherDisplay:10.37,2013-08-06 18:10:00,
2013-08-06 11:11:00,80.5,46.2,30.02,WNW,289,3.5,3.5,30,0.00,CLR,,0.00,890.4,WeatherDisplay:10.37,2013-08-06 18:11:00,
2013-08-06 11:13:00,80.3,46.0,30.02,WNW,289,1.2,1.2,30,0.00,CLR,,0.00,894.0,WeatherDisplay:10.37,2013-08-06 18:13:00,
2013-08-06 11:14:00,80.3,46.0,30.02,WNW,289,1.2,0.0,30,0.00,CLR,,0.00,896.4,WeatherDisplay:10.37,2013-08-06 18:14:00,
2013-08-06 11:15:00,80.3,46.0,30.02,WNW,289,0.0,0.0,30,0.00,CLR,,0.00,896.4,WeatherDisplay:10.37,2013-08-06 18:15:00,
2013-08-06 11:16:00,81.0,46.6,30.02,WNW,288,1.2,1.2,30,0.00,CLR,,0.00,901.2,WeatherDisplay:10.37,2013-08-06 18:16:00,
2013-08-06 11:18:00,83.0,46.5,30.02,WNW,289,2.3,2.3,28,0.00,CLR,,0.00,907.2,WeatherDisplay:10.37,2013-08-06 18:18:00,
2013-08-06 11:20:00,84.3,46.7,30.02,WNW,289,1.2,1.2,27,0.00,CLR,,0.00,904.8,WeatherDisplay:10.37,2013-08-06 18:20:00,
2013-08-06 11:22:00,84.0,45.4,30.02,WNW,289,1.2,1.2,26,0.00,CLR,,0.00,907.2,WeatherDisplay:10.37,2013-08-06 18:22:00,
2013-08-06 11:24:00,84.4,46.8,30.02,SE,125,3.5,3.5,27,0.00,CLR,,0.00,915.6,WeatherDisplay:10.37,2013-08-06 18:24:00,
2013-08-06 11:25:00,84.4,46.8,30.02,West,263,1.0,3.0,27,0.00,CLR,,0.00,918.0,WeatherDisplay:10.37,2013-08-06 18:25:00,
2013-08-06 11:27:00,86.0,46.1,30.02,ESE,120,3.5,3.5,25,0.00,CLR,,0.00,921.6,WeatherDisplay:10.37,2013-08-06 18:27:00,
2013-08-06 11:29:00,87.0,45.8,30.01,ESE,121,2.3,2.3,24,0.00,CLR,,0.00,918.0,WeatherDisplay:10.37,2013-08-06 18:29:00,
2013-08-06 11:30:00,86.8,45.7,30.02,ESE,113,2.3,2.3,24,0.00,CLR,,0.00,918.0,WeatherDisplay:10.37,2013-08-06 18:30:00,
2013-08-06 11:31:00,86.1,45.1,30.01,ESE,113,2.3,2.3,24,0.00,CLR,,0.00,921.6,WeatherDisplay:10.37,2013-08-06 18:31:00,
2013-08-06 11:33:00,85.4,45.6,30.01,ESE,113,2.3,2.3,25,0.00,CLR,,0.00,918.0,WeatherDisplay:10.37,2013-08-06 18:33:00,
2013-08-06 11:34:00,85.4,45.6,30.01,ENE,71,5.0,5.0,25,0.00,CLR,,0.00,901.2,WeatherDisplay:10.37,2013-08-06 18:34:00,
2013-08-06 11:35:00,85.2,45.4,30.01,ENE,76,8.1,8.1,25,0.00,CLR,,0.00,915.6,WeatherDisplay:10.37,2013-08-06 18:35:00,
2013-08-06 11:36:00,85.2,45.4,30.01,ENE,76,8.1,8.1,25,0.00,CLR,,0.00,915.6,WeatherDisplay:10.37,2013-08-06 18:36:00,
2013-08-06 11:38:00,86.3,46.3,30.01,ESE,107,4.6,4.6,25,0.00,CLR,,0.00,926.4,WeatherDisplay:10.37,2013-08-06 18:38:00,
2013-08-06 11:40:00,86.4,45.3,30.01,West,281,3.0,3.0,24,0.00,CLR,,0.00,940.8,WeatherDisplay:10.37,2013-08-06 18:40:00,
2013-08-06 11:41:00,85.8,44.8,30.01,WNW,292,4.6,4.6,24,0.00,CLR,,0.00,938.4,WeatherDisplay:10.37,2013-08-06 18:41:00,
2013-08-06 11:44:00,84.3,44.6,30.01,WNW,292,3.5,3.5,25,0.00,CLR,,0.00,940.8,WeatherDisplay:10.37,2013-08-06 18:44:00,
2013-08-06 11:45:00,84.0,44.4,30.01,WNW,292,2.3,2.3,25,0.00,CLR,,0.00,940.8,WeatherDisplay:10.37,2013-08-06 18:45:00,
2013-08-06 11:46:00,83.4,43.9,30.01,WNW,292,1.2,1.2,25,0.00,CLR,,0.00,945.6,WeatherDisplay:10.37,2013-08-06 18:46:00,
2013-08-06 11:47:00,83.3,43.8,30.01,WNW,292,1.2,1.2,25,0.00,CLR,,0.00,945.6,WeatherDisplay:10.37,2013-08-06 18:47:00,
2013-08-06 11:49:00,83.9,45.3,30.01,NNW,342,3.5,3.5,26,0.00,CLR,,0.00,949.2,WeatherDisplay:10.37,2013-08-06 18:49:00,
2013-08-06 11:50:00,84.0,44.4,30.01,NNW,342,4.0,4.0,25,0.00,CLR,,0.00,951.6,WeatherDisplay:10.37,2013-08-06 18:50:00,
2013-08-06 11:52:00,84.0,46.4,30.01,North,5,3.5,3.5,27,0.00,CLR,,0.00,949.2,WeatherDisplay:10.37,2013-08-06 18:52:00,
2013-08-06 11:55:00,83.6,45.1,30.01,NNW,339,3.5,3.5,26,0.00,CLR,,0.00,955.2,WeatherDisplay:10.37,2013-08-06 18:55:00,
2013-08-06 11:57:00,83.0,44.6,30.01,NNW,334,4.6,4.6,26,0.00,CLR,,0.00,957.6,WeatherDisplay:10.37,2013-08-06 18:57:00,
2013-08-06 12:00:00,83.0,45.6,30.01,NNW,331,2.3,2.3,27,0.00,CLR,,0.00,963.6,WeatherDisplay:10.37,2013-08-06 19:00:00,
2013-08-06 12:02:00,84.0,45.4,30.01,NNW,327,3.5,3.5,26,0.00,CLR,,0.00,970.8,WeatherDisplay:10.37,2013-08-06 19:02:00,
2013-08-06 12:03:00,84.3,45.7,30.01,NNW,327,3.5,3.5,26,0.00,CLR,,0.00,966.0,WeatherDisplay:10.37,2013-08-06 19:03:00,
2013-08-06 12:05:00,85.3,44.4,30.01,WNW,296,6.9,6.9,24,0.00,CLR,,0.00,957.6,WeatherDisplay:10.37,2013-08-06 19:05:00,
2013-08-06 12:07:00,85.0,44.2,30.01,WNW,302,3.5,3.5,24,0.00,CLR,,0.00,957.6,WeatherDisplay:10.37,2013-08-06 19:07:00,
2013-08-06 12:08:00,84.8,44.0,30.01,North,351,4.0,4.0,24,0.00,CLR,,0.00,962.4,WeatherDisplay:10.37,2013-08-06 19:08:00,
2013-08-06 12:10:00,85.8,45.9,30.01,ENE,71,1.2,1.2,25,0.00,CLR,,0.00,960.0,WeatherDisplay:10.37,2013-08-06 19:10:00,
2013-08-06 12:11:00,86.3,45.3,30.01,ENE,71,1.2,0.0,24,0.00,CLR,,0.00,960.0,WeatherDisplay:10.37,2013-08-06 19:11:00,
2013-08-06 12:12:00,87.2,44.9,30.01,WNW,282,3.5,3.5,23,0.00,CLR,,0.00,962.4,WeatherDisplay:10.37,2013-08-06 19:12:00,
2013-08-06 12:13:00,86.7,43.3,30.01,WNW,282,3.5,3.5,22,0.00,CLR,,0.00,960.0,WeatherDisplay:10.37,2013-08-06 19:13:00,
2013-08-06 12:16:00,86.4,44.2,30.01,WNW,286,3.5,3.5,23,0.00,CLR,,0.00,963.6,WeatherDisplay:10.37,2013-08-06 19:16:00,
2013-08-06 12:18:00,86.2,44.0,30.01,NW,311,5.8,5.8,23,0.00,CLR,,0.00,970.8,WeatherDisplay:10.37,2013-08-06 19:18:00,
2013-08-06 12:19:00,85.9,43.8,30.01,NW,317,5.8,5.8,23,0.00,CLR,,0.00,966.0,WeatherDisplay:10.37,2013-08-06 19:19:00,
2013-08-06 12:21:00,85.5,44.6,30.00,NNW,345,5.8,5.8,24,0.00,CLR,,0.00,963.6,WeatherDisplay:10.37,2013-08-06 19:21:00,
2013-08-06 12:23:00,85.5,43.5,30.00,East,90,4.6,4.6,23,0.00,CLR,,0.00,972.0,WeatherDisplay:10.37,2013-08-06 19:23:00,
2013-08-06 12:24:00,85.6,44.7,30.00,NNE,15,4.6,4.6,24,0.00,CLR,,0.00,972.0,WeatherDisplay:10.37,2013-08-06 19:24:00,
2013-08-06 12:26:00,86.4,44.2,30.01,NNW,344,5.8,5.8,23,0.00,CLR,,0.00,976.8,WeatherDisplay:10.37,2013-08-06 19:26:00,
2013-08-06 12:27:00,86.4,44.2,30.01,NW,321,6.0,6.0,23,0.00,CLR,,0.00,972.0,WeatherDisplay:10.37,2013-08-06 19:27:00,
2013-08-06 12:29:00,86.3,44.1,30.01,West,279,5.8,5.8,23,0.00,CLR,,0.00,979.2,WeatherDisplay:10.37,2013-08-06 19:29:00,
2013-08-06 12:30:00,86.5,43.1,30.01,WNW,298,6.9,6.9,22,0.00,CLR,,0.00,974.4,WeatherDisplay:10.37,2013-08-06 19:30:00,
2013-08-06 12:32:00,86.1,42.8,30.01,WNW,296,3.5,3.5,22,0.00,CLR,,0.00,979.2,WeatherDisplay:10.37,2013-08-06 19:32:00,
2013-08-06 12:34:00,86.1,42.8,30.01,NW,309,3.5,3.5,22,0.00,CLR,,0.00,979.2,WeatherDisplay:10.37,2013-08-06 19:34:00,
2013-08-06 12:35:00,86.5,44.3,30.00,WNW,298,7.0,7.0,23,0.00,CLR,,0.00,974.4,WeatherDisplay:10.37,2013-08-06 19:35:00,
2013-08-06 12:36:00,86.6,44.4,30.00,NW,310,6.0,6.0,23,0.00,CLR,,0.00,974.4,WeatherDisplay:10.37,2013-08-06 19:36:00,
2013-08-06 12:37:00,86.5,43.1,30.00,WSW,256,6.9,6.9,22,0.00,CLR,,0.00,976.8,WeatherDisplay:10.37,2013-08-06 19:37:00,
2013-08-06 12:39:00,86.8,43.4,30.00,West,271,5.8,5.8,22,0.00,CLR,,0.00,972.0,WeatherDisplay:10.37,2013-08-06 19:39:00,
2013-08-06 12:41:00,86.8,43.4,30.00,NW,310,6.0,6.5,22,0.00,CLR,,0.00,976.8,WeatherDisplay:10.37,2013-08-06 19:41:00,
2013-08-06 12:42:00,86.6,42.0,30.00,West,268,9.2,9.2,21,0.00,CLR,,0.00,974.4,WeatherDisplay:10.37,2013-08-06 19:42:00,
2013-08-06 12:43:00,86.3,43.0,30.00,WSW,258,6.9,6.9,22,0.00,CLR,,0.00,976.8,WeatherDisplay:10.37,2013-08-06 19:43:00,
2013-08-06 12:45:00,86.5,43.1,30.00,West,271,5.8,5.8,22,0.00,CLR,,0.00,976.8,WeatherDisplay:10.37,2013-08-06 19:45:00,
2013-08-06 12:46:00,86.2,42.9,30.00,WSW,250,4.6,4.6,22,0.00,CLR,,0.00,985.2,WeatherDisplay:10.37,2013-08-06 19:46:00,
2013-08-06 12:47:00,85.8,42.6,30.00,WSW,250,4.6,4.6,22,0.00,CLR,,0.00,985.2,WeatherDisplay:10.37,2013-08-06 19:47:00,
2013-08-06 12:48:00,85.9,42.6,30.00,WSW,250,2.3,2.3,22,0.00,CLR,,0.00,982.8,WeatherDisplay:10.37,2013-08-06 19:48:00,
2013-08-06 12:50:00,86.5,43.1,30.00,West,271,1.0,5.0,22,0.00,CLR,,0.00,980.4,WeatherDisplay:10.37,2013-08-06 19:50:00,
2013-08-06 12:52:00,87.0,43.6,30.00,NNE,18,4.6,4.6,22,0.00,CLR,,0.00,974.4,WeatherDisplay:10.37,2013-08-06 19:52:00,
2013-08-06 12:53:00,87.8,43.0,30.00,NNE,20,2.3,2.3,21,0.00,CLR,,0.00,976.8,WeatherDisplay:10.37,2013-08-06 19:53:00,
2013-08-06 12:54:00,88.6,43.7,30.00,North,350,3.5,3.5,21,0.00,CLR,,0.00,982.8,WeatherDisplay:10.37,2013-08-06 19:54:00,
2013-08-06 12:56:00,88.3,42.1,30.00,NNE,14,4.6,4.6,20,0.00,CLR,,0.00,985.2,WeatherDisplay:10.37,2013-08-06 19:56:00,
2013-08-06 12:57:00,87.9,43.1,30.00,North,351,5.8,5.8,21,0.00,CLR,,0.00,976.8,WeatherDisplay:10.37,2013-08-06 19:57:00,
2013-08-06 12:58:00,87.6,42.8,30.00,North,351,5.8,5.8,21,0.00,CLR,,0.00,976.8,WeatherDisplay:10.37,2013-08-06 19:58:00,
2013-08-06 12:59:00,87.7,42.9,30.00,NNW,347,5.8,5.8,21,0.00,CLR,,0.00,980.4,WeatherDisplay:10.37,2013-08-06 19:59:00,
2013-08-06 13:00:00,88.3,43.4,30.00,NW,311,6.0,6.0,21,0.00,CLR,,0.00,980.4,WeatherDisplay:10.37,2013-08-06 20:00:00,
2013-08-06 13:01:00,88.4,43.5,29.99,NNW,333,5.8,5.8,21,0.00,CLR,,0.00,991.2,WeatherDisplay:10.37,2013-08-06 20:01:00,
2013-08-06 13:02:00,88.6,42.4,30.00,NW,315,5.8,5.8,20,0.00,CLR,,0.00,982.8,WeatherDisplay:10.37,2013-08-06 20:02:00,
2013-08-06 13:03:00,88.4,42.2,29.99,NW,313,4.6,4.6,20,0.00,CLR,,0.00,974.4,WeatherDisplay:10.37,2013-08-06 20:03:00,
2013-08-06 13:04:00,88.4,42.2,29.99,WNW,294,4.6,4.6,20,0.00,CLR,,0.00,974.4,WeatherDisplay:10.37,2013-08-06 20:04:00,
2013-08-06 13:05:00,88.4,42.2,29.99,WNW,286,4.6,4.6,20,0.00,CLR,,0.00,974.4,WeatherDisplay:10.37,2013-08-06 20:05:00,
2013-08-06 13:06:00,88.9,42.6,29.99,North,360,8.1,8.1,20,0.00,CLR,,0.00,972.0,WeatherDisplay:10.37,2013-08-06 20:06:00,
2013-08-06 13:07:00,88.9,42.6,29.99,North,5,4.6,4.6,20,0.00,CLR,,0.00,968.4,WeatherDisplay:10.37,2013-08-06 20:07:00,
2013-08-06 13:08:00,89.0,42.7,29.99,NNW,339,3.5,3.5,20,0.00,CLR,,0.00,970.8,WeatherDisplay:10.37,2013-08-06 20:08:00,
2013-08-06 13:10:00,89.1,42.8,29.99,NW,324,4.6,4.6,20,0.00,CLR,,0.00,980.4,WeatherDisplay:10.37,2013-08-06 20:10:00,
2013-08-06 13:11:00,89.1,42.8,29.99,NNW,333,4.6,4.6,20,0.00,CLR,,0.00,980.4,WeatherDisplay:10.37,2013-08-06 20:11:00,
2013-08-06 13:12:00,89.2,42.9,29.99,NW,316,3.5,3.5,20,0.00,CLR,,0.00,980.4,WeatherDisplay:10.37,2013-08-06 20:12:00,
2013-08-06 13:13:00,89.3,43.0,29.99,NW,320,6.0,6.0,20,0.00,CLR,,0.00,979.2,WeatherDisplay:10.37,2013-08-06 20:13:00,
2013-08-06 13:14:00,89.1,41.5,29.99,NW,306,5.8,5.8,19,0.00,CLR,,0.00,972.0,WeatherDisplay:10.37,2013-08-06 20:14:00,
2013-08-06 13:15:00,88.8,42.6,29.99,NW,306,5.8,5.8,20,0.00,CLR,,0.00,972.0,WeatherDisplay:10.37,2013-08-06 20:15:00,
2013-08-06 13:16:00,88.4,42.2,29.99,North,360,5.0,5.0,20,0.00,CLR,,0.00,976.8,WeatherDisplay:10.37,2013-08-06 20:16:00,
2013-08-06 13:17:00,88.8,42.6,29.99,WNW,294,7.0,7.0,20,0.00,CLR,,0.00,988.8,WeatherDisplay:10.37,2013-08-06 20:17:00,
2013-08-06 13:18:00,88.9,41.3,29.99,West,280,8.1,8.1,19,0.00,CLR,,0.00,999.6,WeatherDisplay:10.37,2013-08-06 20:18:00,
2013-08-06 13:19:00,89.2,41.5,29.99,WNW,296,4.6,4.6,19,0.00,CLR,,0.00,1002.0,WeatherDisplay:10.37,2013-08-06 20:19:00,
2013-08-06 13:20:00,89.3,41.6,29.99,NW,318,4.6,4.6,19,0.00,CLR,,0.00,1002.0,WeatherDisplay:10.37,2013-08-06 20:20:00,
2013-08-06 13:21:00,89.4,41.7,29.99,NNW,347,4.6,4.6,19,0.00,CLR,,0.00,996.0,WeatherDisplay:10.37,2013-08-06 20:21:00,
2013-08-06 13:22:00,88.8,41.2,29.99,NNW,331,5.8,5.8,19,0.00,CLR,,0.00,1002.0,WeatherDisplay:10.37,2013-08-06 20:22:00,
2013-08-06 13:23:00,88.7,41.1,29.99,North,355,4.6,4.6,19,0.00,CLR,,0.00,1004.4,WeatherDisplay:10.37,2013-08-06 20:23:00,
2013-08-06 13:25:00,88.9,42.6,29.99,NW,304,5.8,5.8,20,0.00,CLR,,0.00,1008.0,WeatherDisplay:10.37,2013-08-06 20:25:00,
2013-08-06 13:26:00,89.4,41.7,29.99,WNW,291,5.8,5.8,19,0.00,CLR,,0.00,1002.0,WeatherDisplay:10.37,2013-08-06 20:26:00,
2013-08-06 13:28:00,90.0,40.8,29.99,WNW,302,3.5,3.5,18,0.00,CLR,,0.00,991.2,WeatherDisplay:10.37,2013-08-06 20:28:00,
2013-08-06 13:29:00,90.3,41.0,29.98,WNW,286,5.0,5.0,18,0.00,CLR,,0.00,980.4,WeatherDisplay:10.37,2013-08-06 20:29:00,
2013-08-06 13:30:00,90.3,41.0,29.98,NW,313,3.0,6.0,18,0.00,CLR,,0.00,979.2,WeatherDisplay:10.37,2013-08-06 20:30:00,
2013-08-06 13:31:00,89.8,40.6,29.98,WNW,295,6.9,6.9,18,0.00,CLR,,0.00,980.4,WeatherDisplay:10.37,2013-08-06 20:31:00,
2013-08-06 13:32:00,89.4,40.3,29.98,WNW,300,6.9,6.9,18,0.00,CLR,,0.00,968.4,WeatherDisplay:10.37,2013-08-06 20:32:00,
2013-08-06 13:33:00,89.4,40.3,29.98,WNW,290,6.9,6.9,18,0.00,CLR,,0.00,962.4,WeatherDisplay:10.37,2013-08-06 20:33:00,
2013-08-06 13:34:00,89.6,41.9,29.98,WNW,293,6.9,6.9,19,0.00,CLR,,0.00,957.6,WeatherDisplay:10.37,2013-08-06 20:34:00,
2013-08-06 13:35:00,89.7,40.5,29.98,WNW,302,6.0,8.0,18,0.00,CLR,,0.00,966.0,WeatherDisplay:10.37,2013-08-06 20:35:00,
2013-08-06 13:36:00,89.6,40.5,29.98,WNW,284,8.1,8.1,18,0.00,CLR,,0.00,962.4,WeatherDisplay:10.37,2013-08-06 20:36:00,
2013-08-06 13:37:00,89.7,40.6,29.98,NW,307,8.1,8.1,18,0.00,CLR,,0.00,960.0,WeatherDisplay:10.37,2013-08-06 20:37:00,
2013-08-06 13:38:00,89.3,40.2,29.98,WNW,300,6.9,6.9,18,0.00,CLR,,0.00,955.2,WeatherDisplay:10.37,2013-08-06 20:38:00,
2013-08-06 13:39:00,88.8,39.8,29.98,WNW,300,5.8,5.8,18,0.00,CLR,,0.00,960.0,WeatherDisplay:10.37,2013-08-06 20:39:00,
2013-08-06 13:40:00,88.3,39.4,29.98,WNW,300,2.3,2.3,18,0.00,CLR,,0.00,960.0,WeatherDisplay:10.37,2013-08-06 20:40:00,
2013-08-06 13:41:00,88.6,39.7,29.98,WNW,300,3.0,3.0,18,0.00,CLR,,0.00,960.0,WeatherDisplay:10.37,2013-08-06 20:41:00,
2013-08-06 13:43:00,89.2,40.1,29.98,WNW,300,3.5,3.5,18,0.00,CLR,,0.00,957.6,WeatherDisplay:10.37,2013-08-06 20:43:00,
2013-08-06 13:44:00,89.7,40.6,29.98,WNW,300,2.3,2.3,18,0.00,CLR,,0.00,962.4,WeatherDisplay:10.37,2013-08-06 20:44:00,
2013-08-06 13:45:00,90.2,39.5,29.98,NNW,329,8.0,8.0,17,0.00,CLR,,0.00,966.0,WeatherDisplay:10.37,2013-08-06 20:45:00,
2013-08-06 13:47:00,90.7,39.9,29.98,NW,313,8.0,8.0,17,0.00,CLR,,0.00,949.2,WeatherDisplay:10.37,2013-08-06 20:47:00,
2013-08-06 13:49:00,90.3,39.6,29.98,WNW,300,8.1,8.1,17,0.00,CLR,,0.00,954.0,WeatherDisplay:10.37,2013-08-06 20:49:00,
2013-08-06 13:50:00,90.1,39.4,29.98,West,277,8.1,8.1,17,0.00,CLR,,0.00,955.2,WeatherDisplay:10.37,2013-08-06 20:50:00,
2013-08-06 13:52:00,89.1,38.6,29.98,North,350,3.5,3.5,17,0.00,CLR,,0.00,955.2,WeatherDisplay:10.37,2013-08-06 20:52:00,
2013-08-06 13:54:00,89.8,40.6,29.98,NW,322,5.0,5.0,18,0.00,CLR,,0.00,951.6,WeatherDisplay:10.37,2013-08-06 20:54:00,
2013-08-06 13:55:00,90.0,40.8,29.98,WNW,298,6.9,6.9,18,0.00,CLR,,0.00,955.2,WeatherDisplay:10.37,2013-08-06 20:55:00,
2013-08-06 13:56:00,89.2,38.7,29.98,NNW,342,5.8,5.8,17,0.00,CLR,,0.00,951.6,WeatherDisplay:10.37,2013-08-06 20:56:00,
2013-08-06 13:57:00,89.1,38.6,29.98,NW,320,5.0,5.0,17,0.00,CLR,,0.00,962.4,WeatherDisplay:10.37,2013-08-06 20:57:00,
2013-08-06 13:59:00,89.7,39.1,29.98,NW,317,5.0,5.2,17,0.00,CLR,,0.00,970.8,WeatherDisplay:10.37,2013-08-06 20:59:00,
2013-08-06 14:00:00,89.4,38.8,29.98,NNW,338,6.9,6.9,17,0.00,CLR,,0.00,966.0,WeatherDisplay:10.37,2013-08-06 21:00:00,
2013-08-06 14:02:00,89.5,38.9,29.98,NNW,346,8.1,8.1,17,0.00,CLR,,0.00,962.4,WeatherDisplay:10.37,2013-08-06 21:02:00,
2013-08-06 14:04:00,90.2,37.9,29.98,NW,308,6.9,6.9,16,0.00,CLR,,0.00,968.4,WeatherDisplay:10.37,2013-08-06 21:04:00,
2013-08-06 14:05:00,90.4,38.1,29.97,NW,325,7.0,7.0,16,0.00,CLR,,0.00,963.6,WeatherDisplay:10.37,2013-08-06 21:05:00,
2013-08-06 14:07:00,90.2,37.9,29.97,NNW,338,6.9,6.9,16,0.00,CLR,,0.00,963.6,WeatherDisplay:10.37,2013-08-06 21:07:00,
2013-08-06 14:08:00,90.2,37.9,29.97,NNW,347,6.9,6.9,16,0.00,CLR,,0.00,970.8,WeatherDisplay:10.37,2013-08-06 21:08:00,
2013-08-06 14:09:00,89.9,39.2,29.97,WNW,302,9.0,9.0,17,0.00,CLR,,0.00,955.2,WeatherDisplay:10.37,2013-08-06 21:09:00,
2013-08-06 14:11:00,90.1,37.9,29.97,NNW,336,9.2,9.2,16,0.00,CLR,,0.00,955.2,WeatherDisplay:10.37,2013-08-06 21:11:00,
2013-08-06 14:12:00,90.1,37.9,29.97,NNW,346,5.8,5.8,16,0.00,CLR,,0.00,945.6,WeatherDisplay:10.37,2013-08-06 21:12:00,
2013-08-06 14:14:00,89.5,37.4,29.97,West,271,8.1,8.1,16,0.00,CLR,,0.00,970.8,WeatherDisplay:10.37,2013-08-06 21:14:00,
2013-08-06 14:16:00,89.9,37.7,29.97,West,271,2.3,2.3,16,0.00,CLR,,0.00,979.2,WeatherDisplay:10.37,2013-08-06 21:16:00,
2013-08-06 14:17:00,91.7,39.1,29.97,NW,316,5.0,5.0,16,0.00,CLR,,0.00,970.8,WeatherDisplay:10.37,2013-08-06 21:17:00,
2013-08-06 14:19:00,93.0,38.5,29.97,NW,310,6.0,6.0,15,0.00,CLR,,0.00,979.2,WeatherDisplay:10.37,2013-08-06 21:19:00,
2013-08-06 14:20:00,93.1,36.8,29.97,NW,313,6.0,6.0,14,0.00,CLR,,0.00,979.2,WeatherDisplay:10.37,2013-08-06 21:20:00,
2013-08-06 14:21:00,92.6,38.2,29.97,North,360,8.1,8.1,15,0.00,CLR,,0.00,976.8,WeatherDisplay:10.37,2013-08-06 21:21:00,
2013-08-06 14:22:00,91.5,35.6,29.97,North,355,9.2,9.2,14,0.00,CLR,,0.00,974.4,WeatherDisplay:10.37,2013-08-06 21:22:00,
2013-08-06 14:25:00,91.1,37.0,29.97,East,101,4.6,4.6,15,0.00,CLR,,0.00,966.0,WeatherDisplay:10.37,2013-08-06 21:25:00,
2013-08-06 14:26:00,92.5,38.1,29.97,West,260,3.5,3.5,15,0.00,CLR,,0.00,974.4,WeatherDisplay:10.37,2013-08-06 21:26:00,
2013-08-06 14:27:00,92.9,36.7,29.96,WNW,286,4.6,4.6,14,0.00,CLR,,0.00,985.2,WeatherDisplay:10.37,2013-08-06 21:27:00,
2013-08-06 14:28:00,92.8,36.6,29.96,WSW,251,5.0,5.0,14,0.00,CLR,,0.00,980.4,WeatherDisplay:10.37,2013-08-06 21:28:00,
2013-08-06 14:30:00,92.0,37.7,29.97,SW,215,3.5,3.5,15,0.00,CLR,,0.00,976.8,WeatherDisplay:10.37,2013-08-06 21:30:00,
2013-08-06 14:31:00,92.1,37.8,29.97,West,265,3.5,3.5,15,0.00,CLR,,0.00,976.8,WeatherDisplay:10.37,2013-08-06 21:31:00,
2013-08-06 14:33:00,91.7,35.7,29.97,SW,219,5.8,5.8,14,0.00,CLR,,0.00,976.8,WeatherDisplay:10.37,2013-08-06 21:33:00,
2013-08-06 14:35:00,94.8,38.2,29.96,NE,38,3.0,3.0,14,0.00,CLR,,0.00,970.8,WeatherDisplay:10.37,2013-08-06 21:35:00,
2013-08-06 14:36:00,94.7,36.2,29.96,NNW,329,4.0,4.0,13,0.00,CLR,,0.00,970.8,WeatherDisplay:10.37,2013-08-06 21:36:00,
2013-08-06 14:37:00,94.4,37.9,29.96,WNW,285,6.9,6.9,14,0.00,CLR,,0.00,970.8,WeatherDisplay:10.37,2013-08-06 21:37:00,
2013-08-06 14:38:00,94.2,37.7,29.96,NW,322,7.0,7.0,14,0.00,CLR,,0.00,968.4,WeatherDisplay:10.37,2013-08-06 21:38:00,
2013-08-06 14:39:00,93.6,37.2,29.96,WNW,298,8.1,8.1,14,0.00,CLR,,0.00,968.4,WeatherDisplay:10.37,2013-08-06 21:39:00,
2013-08-06 14:41:00,92.6,36.4,29.96,NW,319,5.8,5.8,14,0.00,CLR,,0.00,946.8,WeatherDisplay:10.37,2013-08-06 21:41:00,
2013-08-06 14:42:00,91.7,35.7,29.96,NW,317,5.8,5.8,14,0.00,CLR,,0.00,949.2,WeatherDisplay:10.37,2013-08-06 21:42:00,
2013-08-06 14:43:00,91.8,37.6,29.96,NNE,13,3.5,3.5,15,0.00,CLR,,0.00,945.6,WeatherDisplay:10.37,2013-08-06 21:43:00,
2013-08-06 14:44:00,92.1,36.0,29.96,NNE,15,3.5,3.5,14,0.00,CLR,,0.00,945.6,WeatherDisplay:10.37,2013-08-06 21:44:00,
2013-08-06 14:46:00,94.1,37.6,29.95,East,98,9.2,9.2,14,0.00,CLR,,0.00,943.2,WeatherDisplay:10.37,2013-08-06 21:46:00,
2013-08-06 14:47:00,95.8,37.1,29.95,ESE,113,5.8,5.8,13,0.00,CLR,,0.00,938.4,WeatherDisplay:10.37,2013-08-06 21:47:00,
2013-08-06 14:48:00,96.1,37.3,29.95,North,10,7.0,7.0,13,0.00,CLR,,0.00,938.4,WeatherDisplay:10.37,2013-08-06 21:48:00,
2013-08-06 14:49:00,95.4,36.8,29.95,WNW,303,6.9,6.9,13,0.00,CLR,,0.00,943.2,WeatherDisplay:10.37,2013-08-06 21:49:00,
2013-08-06 14:51:00,94.3,37.8,29.95,ESE,102,5.0,5.0,14,0.00,CLR,,0.00,945.6,WeatherDisplay:10.37,2013-08-06 21:51:00,
2013-08-06 14:53:00,95.1,36.5,29.95,ESE,107,4.6,4.6,13,0.00,CLR,,0.00,940.8,WeatherDisplay:10.37,2013-08-06 21:53:00,
2013-08-06 14:54:00,95.5,36.8,29.95,WNW,297,5.0,5.0,13,0.00,CLR,,0.00,946.8,WeatherDisplay:10.37,2013-08-06 21:54:00,
2013-08-06 14:55:00,95.1,36.5,29.96,NW,308,5.8,5.8,13,0.00,CLR,,0.00,951.6,WeatherDisplay:10.37,2013-08-06 21:55:00,
2013-08-06 14:56:00,94.0,37.5,29.95,WNW,300,8.1,8.1,14,0.00,CLR,,0.00,946.8,WeatherDisplay:10.37,2013-08-06 21:56:00,
2013-08-06 14:58:00,93.5,37.2,29.95,NW,315,8.1,8.1,14,0.00,CLR,,0.00,940.8,WeatherDisplay:10.37,2013-08-06 21:58:00,
2013-08-06 14:59:00,92.9,36.7,29.95,West,280,11.5,11.5,14,0.00,CLR,,0.00,936.0,WeatherDisplay:10.37,2013-08-06 21:59:00,
2013-08-06 15:00:00,92.9,36.7,29.95,NW,305,11.5,11.5,14,0.00,CLR,,0.00,934.8,WeatherDisplay:10.37,2013-08-06 22:00:00,
2013-08-06 15:02:00,92.3,38.0,29.95,NNW,327,9.0,9.0,15,0.00,CLR,,0.00,934.8,WeatherDisplay:10.37,2013-08-06 22:02:00,
2013-08-06 15:03:00,92.2,37.9,29.95,WNW,291,12.7,12.7,15,0.00,CLR,,0.00,926.4,WeatherDisplay:10.37,2013-08-06 22:03:00,
2013-08-06 15:04:00,92.7,36.5,29.95,West,269,11.0,11.0,14,0.00,CLR,,0.00,926.4,WeatherDisplay:10.37,2013-08-06 22:04:00,
2013-08-06 15:05:00,92.7,36.5,29.95,NW,315,8.1,8.1,14,0.00,CLR,,0.00,921.6,WeatherDisplay:10.37,2013-08-06 22:05:00,
2013-08-06 15:07:00,92.3,36.2,29.95,West,276,8.1,8.1,14,0.00,CLR,,0.00,913.2,WeatherDisplay:10.37,2013-08-06 22:07:00,
2013-08-06 15:09:00,92.1,36.0,29.95,WNW,288,5.8,5.8,14,0.00,CLR,,0.00,904.8,WeatherDisplay:10.37,2013-08-06 22:09:00,
2013-08-06 15:10:00,91.9,35.9,29.95,WNW,294,5.0,5.0,14,0.00,CLR,,0.00,898.8,WeatherDisplay:10.37,2013-08-06 22:10:00,
2013-08-06 15:12:00,92.1,36.0,29.95,NNW,346,6.0,6.0,14,0.00,CLR,,0.00,879.6,WeatherDisplay:10.37,2013-08-06 22:12:00,
2013-08-06 15:13:00,92.0,36.0,29.95,NNW,340,5.8,5.8,14,0.00,CLR,,0.00,879.6,WeatherDisplay:10.37,2013-08-06 22:13:00,
2013-08-06 15:14:00,91.7,35.7,29.95,North,350,6.9,6.9,14,0.00,CLR,,0.00,871.2,WeatherDisplay:10.37,2013-08-06 22:14:00,
2013-08-06 15:16:00,92.2,36.1,29.95,WNW,297,8.1,8.1,14,0.00,CLR,,0.00,874.8,WeatherDisplay:10.37,2013-08-06 22:16:00,
2013-08-06 15:18:00,93.1,36.8,29.95,NW,324,5.0,5.0,14,0.00,CLR,,0.00,879.6,WeatherDisplay:10.37,2013-08-06 22:18:00,
2013-08-06 15:19:00,92.9,36.7,29.95,NNW,327,6.9,6.9,14,0.00,CLR,,0.00,879.6,WeatherDisplay:10.37,2013-08-06 22:19:00,
2013-08-06 15:21:00,93.3,37.0,29.95,NW,319,5.0,5.0,14,0.00,CLR,,0.00,884.4,WeatherDisplay:10.37,2013-08-06 22:21:00,
2013-08-06 15:23:00,93.0,34.9,29.95,NNW,327,8.1,8.1,13,0.00,CLR,,0.00,874.8,WeatherDisplay:10.37,2013-08-06 22:23:00,
2013-08-06 15:24:00,92.7,36.5,29.95,NNW,338,8.1,8.1,14,0.00,CLR,,0.00,879.6,WeatherDisplay:10.37,2013-08-06 22:24:00,
2013-08-06 15:25:00,92.7,36.5,29.95,North,355,5.0,8.0,14,0.00,CLR,,0.00,873.6,WeatherDisplay:10.37,2013-08-06 22:25:00,
2013-08-06 15:26:00,93.0,36.8,29.95,NW,325,4.6,4.6,14,0.00,CLR,,0.00,866.4,WeatherDisplay:10.37,2013-08-06 22:26:00,
2013-08-06 15:27:00,93.0,36.8,29.95,NNW,346,8.0,8.0,14,0.00,CLR,,0.00,860.4,WeatherDisplay:10.37,2013-08-06 22:27:00,
2013-08-06 15:28:00,93.3,37.0,29.94,ENE,59,8.1,8.1,14,0.00,CLR,,0.00,862.8,WeatherDisplay:10.37,2013-08-06 22:28:00,
2013-08-06 15:29:00,93.3,35.1,29.95,NNW,336,8.0,8.0,13,0.00,CLR,,0.00,860.4,WeatherDisplay:10.37,2013-08-06 22:29:00,
2013-08-06 15:30:00,93.3,35.1,29.95,NNW,348,6.0,10.0,13,0.00,CLR,,0.00,858.0,WeatherDisplay:10.37,2013-08-06 22:30:00,
2013-08-06 15:31:00,92.8,36.6,29.94,ENE,59,6.9,6.9,14,0.00,CLR,,0.00,856.8,WeatherDisplay:10.37,2013-08-06 22:31:00,
2013-08-06 15:33:00,92.5,34.5,29.94,NW,308,6.9,6.9,13,0.00,CLR,,0.00,856.8,WeatherDisplay:10.37,2013-08-06 22:33:00,
2013-08-06 15:34:00,92.3,36.2,29.94,NW,314,8.1,8.1,14,0.00,CLR,,0.00,849.6,WeatherDisplay:10.37,2013-08-06 22:34:00,
2013-08-06 15:35:00,92.3,36.2,29.94,NNW,341,6.0,8.0,14,0.00,CLR,,0.00,849.6,WeatherDisplay:10.37,2013-08-06 22:35:00,
2013-08-06 15:37:00,92.3,36.2,29.94,WNW,290,8.1,8.1,14,0.00,CLR,,0.00,837.6,WeatherDisplay:10.37,2013-08-06 22:37:00,
2013-08-06 15:38:00,93.1,36.8,29.94,WNW,293,8.1,8.1,14,0.00,CLR,,0.00,835.2,WeatherDisplay:10.37,2013-08-06 22:38:00,
2013-08-06 15:39:00,93.2,36.9,29.94,NW,323,8.1,8.1,14,0.00,CLR,,0.00,832.8,WeatherDisplay:10.37,2013-08-06 22:39:00,
2013-08-06 15:40:00,92.9,34.8,29.94,NW,315,13.8,13.8,13,0.00,CLR,,0.00,835.2,WeatherDisplay:10.37,2013-08-06 22:40:00,
2013-08-06 15:42:00,91.6,33.8,29.94,WNW,288,9.2,9.2,13,0.00,CLR,,0.00,823.2,WeatherDisplay:10.37,2013-08-06 22:42:00,
2013-08-06 15:43:00,91.6,35.7,29.94,WNW,289,6.9,6.9,14,0.00,CLR,,0.00,818.4,WeatherDisplay:10.37,2013-08-06 22:43:00,
2013-08-06 15:44:00,91.7,33.9,29.94,NW,304,5.8,5.8,13,0.00,CLR,,0.00,816.0,WeatherDisplay:10.37,2013-08-06 22:44:00,
2013-08-06 15:45:00,91.7,33.9,29.95,WNW,297,4.6,4.6,13,0.00,CLR,,0.00,820.8,WeatherDisplay:10.37,2013-08-06 22:45:00,
2013-08-06 15:47:00,92.1,36.0,29.94,NW,304,10.4,10.4,14,0.00,CLR,,0.00,816.0,WeatherDisplay:10.37,2013-08-06 22:47:00,
2013-08-06 15:48:00,92.0,36.0,29.94,NW,323,11.5,11.5,14,0.00,CLR,,0.00,812.4,WeatherDisplay:10.37,2013-08-06 22:48:00,
2013-08-06 15:49:00,91.7,35.7,29.94,WNW,302,11.5,11.5,14,0.00,CLR,,0.00,807.6,WeatherDisplay:10.37,2013-08-06 22:49:00,
2013-08-06 15:50:00,91.6,35.7,29.94,NNW,348,11.5,11.5,14,0.00,CLR,,0.00,807.6,WeatherDisplay:10.37,2013-08-06 22:50:00,
2013-08-06 15:51:00,91.3,35.4,29.94,WNW,301,8.1,8.1,14,0.00,CLR,,0.00,805.2,WeatherDisplay:10.37,2013-08-06 22:51:00,
2013-08-06 15:53:00,91.0,35.2,29.94,WNW,298,3.5,3.5,14,0.00,CLR,,0.00,805.2,WeatherDisplay:10.37,2013-08-06 22:53:00,
2013-08-06 15:55:00,91.6,35.7,29.94,West,277,8.1,8.1,14,0.00,CLR,,0.00,787.2,WeatherDisplay:10.37,2013-08-06 22:55:00,
2013-08-06 15:56:00,92.0,36.0,29.94,NNW,328,8.1,8.1,14,0.00,CLR,,0.00,782.4,WeatherDisplay:10.37,2013-08-06 22:56:00,
2013-08-06 15:58:00,92.1,34.2,29.94,North,5,6.9,6.9,13,0.00,CLR,,0.00,780.0,WeatherDisplay:10.37,2013-08-06 22:58:00,
2013-08-06 16:00:00,92.4,34.4,29.94,NNE,20,5.8,5.8,13,0.00,CLR,,0.00,776.4,WeatherDisplay:10.37,2013-08-06 23:00:00,
2013-08-06 16:02:00,93.1,35.0,29.94,NE,38,4.6,4.6,13,0.00,CLR,,0.00,774.0,WeatherDisplay:10.37,2013-08-06 23:02:00,
2013-08-06 16:03:00,93.2,35.0,29.94,WNW,289,6.9,6.9,13,0.00,CLR,,0.00,771.6,WeatherDisplay:10.37,2013-08-06 23:03:00,
2013-08-06 16:05:00,92.9,36.7,29.94,WNW,297,12.7,12.7,14,0.00,CLR,,0.00,753.6,WeatherDisplay:10.37,2013-08-06 23:05:00,
2013-08-06 16:06:00,92.8,34.7,29.94,NW,304,12.7,12.7,13,0.00,CLR,,0.00,753.6,WeatherDisplay:10.37,2013-08-06 23:06:00,
2013-08-06 16:07:00,92.0,34.1,29.94,NNW,339,9.2,9.2,13,0.00,CLR,,0.00,746.4,WeatherDisplay:10.37,2013-08-06 23:07:00,
2013-08-06 16:09:00,91.7,35.7,29.94,NNW,346,10.0,10.0,14,0.00,CLR,,0.00,748.8,WeatherDisplay:10.37,2013-08-06 23:09:00,
2013-08-06 16:10:00,91.6,35.7,29.94,NNE,13,11.5,11.5,14,0.00,CLR,,0.00,735.6,WeatherDisplay:10.37,2013-08-06 23:10:00,
2013-08-06 16:12:00,91.4,35.5,29.94,ENE,77,11.5,11.5,14,0.00,CLR,,0.00,734.4,WeatherDisplay:10.37,2013-08-06 23:12:00,
2013-08-06 16:14:00,92.4,34.4,29.94,North,360,8.1,8.1,13,0.00,CLR,,0.00,727.2,WeatherDisplay:10.37,2013-08-06 23:14:00,
2013-08-06 16:15:00,92.4,36.3,29.94,North,5,16.1,16.1,14,0.00,CLR,,0.00,726.0,WeatherDisplay:10.37,2013-08-06 23:15:00,
2013-08-06 16:17:00,91.8,33.9,29.94,North,360,8.1,8.1,13,0.00,CLR,,0.00,729.6,WeatherDisplay:10.37,2013-08-06 23:17:00,
2013-08-06 16:18:00,91.5,35.6,29.94,North,355,8.1,8.1,14,0.00,CLR,,0.00,729.6,WeatherDisplay:10.37,2013-08-06 23:18:00,
2013-08-06 16:19:00,91.4,35.5,29.94,NNW,340,9.2,9.2,14,0.00,CLR,,0.00,723.6,WeatherDisplay:10.37,2013-08-06 23:19:00,
2013-08-06 16:21:00,91.6,35.7,29.94,NW,309,6.9,6.9,14,0.00,CLR,,0.00,721.2,WeatherDisplay:10.37,2013-08-06 23:21:00,
2013-08-06 16:22:00,92.4,36.3,29.94,WNW,296,12.7,12.7,14,0.00,CLR,,0.00,717.6,WeatherDisplay:10.37,2013-08-06 23:22:00,
2013-08-06 16:23:00,92.4,34.4,29.94,NW,318,12.7,12.7,13,0.00,CLR,,0.00,710.4,WeatherDisplay:10.37,2013-08-06 23:23:00,
2013-08-06 16:24:00,92.0,36.0,29.94,North,355,5.8,5.8,14,0.00,CLR,,0.00,709.2,WeatherDisplay:10.37,2013-08-06 23:24:00,
2013-08-06 16:26:00,92.4,36.3,29.93,NNW,342,8.1,8.1,14,0.00,CLR,,0.00,709.2,WeatherDisplay:10.37,2013-08-06 23:26:00,
2013-08-06 16:27:00,92.5,34.5,29.93,NNW,329,9.2,9.2,13,0.00,CLR,,0.00,698.4,WeatherDisplay:10.37,2013-08-06 23:27:00,
2013-08-06 16:28:00,92.5,36.4,29.93,NW,306,9.2,9.2,14,0.00,CLR,,0.00,698.4,WeatherDisplay:10.37,2013-08-06 23:28:00,
2013-08-06 16:30:00,92.6,36.4,29.93,NW,321,9.2,9.2,14,0.00,CLR,,0.00,693.6,WeatherDisplay:10.37,2013-08-06 23:30:00,
2013-08-06 16:32:00,92.3,34.3,29.93,NW,306,5.8,5.8,13,0.00,CLR,,0.00,693.6,WeatherDisplay:10.37,2013-08-06 23:32:00,
2013-08-06 16:33:00,92.1,36.0,29.93,NW,310,11.0,11.0,14,0.00,CLR,,0.00,693.6,WeatherDisplay:10.37,2013-08-06 23:33:00,
2013-08-06 16:34:00,91.9,35.9,29.93,NW,305,10.4,10.4,14,0.00,CLR,,0.00,690.0,WeatherDisplay:10.37,2013-08-06 23:34:00,
2013-08-06 16:35:00,91.9,35.9,29.93,NW,312,11.5,11.5,14,0.00,CLR,,0.00,685.2,WeatherDisplay:10.37,2013-08-06 23:35:00,
2013-08-06 16:36:00,92.1,36.0,29.93,NW,315,10.0,10.0,14,0.00,CLR,,0.00,681.6,WeatherDisplay:10.37,2013-08-06 23:36:00,
2013-08-06 16:38:00,91.5,33.7,29.94,WNW,298,8.1,8.1,13,0.00,CLR,,0.00,668.4,WeatherDisplay:10.37,2013-08-06 23:38:00,
2013-08-06 16:39:00,91.4,35.5,29.94,NW,313,8.1,8.1,14,0.00,CLR,,0.00,664.8,WeatherDisplay:10.37,2013-08-06 23:39:00,
2013-08-06 16:40:00,91.5,35.6,29.93,NW,321,8.1,8.1,14,0.00,CLR,,0.00,656.4,WeatherDisplay:10.37,2013-08-06 23:40:00,
2013-08-06 16:41:00,91.7,35.7,29.93,WNW,300,9.0,9.0,14,0.00,CLR,,0.00,651.6,WeatherDisplay:10.37,2013-08-06 23:41:00,
2013-08-06 16:43:00,91.4,33.6,29.93,WNW,292,11.5,11.5,13,0.00,CLR,,0.00,643.2,WeatherDisplay:10.37,2013-08-06 23:43:00,
2013-08-06 16:44:00,91.2,35.3,29.93,NW,314,9.2,9.2,14,0.00,CLR,,0.00,639.6,WeatherDisplay:10.37,2013-08-06 23:44:00,
2013-08-06 16:45:00,91.2,35.3,29.93,West,280,6.0,6.0,14,0.00,CLR,,0.00,631.2,WeatherDisplay:10.37,2013-08-06 23:45:00,
2013-08-06 16:47:00,91.2,35.3,29.93,WNW,292,8.1,8.1,14,0.00,CLR,,0.00,628.8,WeatherDisplay:10.37,2013-08-06 23:47:00,
2013-08-06 16:48:00,91.3,35.4,29.93,WNW,289,8.1,8.1,14,0.00,CLR,,0.00,632.4,WeatherDisplay:10.37,2013-08-06 23:48:00,
2013-08-06 16:49:00,91.4,35.5,29.93,WNW,297,9.2,9.2,14,0.00,CLR,,0.00,632.4,WeatherDisplay:10.37,2013-08-06 23:49:00,
2013-08-06 16:50:00,91.3,35.4,29.93,NW,313,10.4,10.4,14,0.00,CLR,,0.00,632.4,WeatherDisplay:10.37,2013-08-06 23:50:00,
2013-08-06 16:51:00,91.2,35.3,29.93,NW,315,10.4,10.4,14,0.00,CLR,,0.00,632.4,WeatherDisplay:10.37,2013-08-06 23:51:00,
2013-08-06 16:52:00,91.1,35.3,29.93,WNW,301,10.4,10.4,14,0.00,CLR,,0.00,631.2,WeatherDisplay:10.37,2013-08-06 23:52:00,
2013-08-06 16:53:00,91.2,35.3,29.93,WNW,289,8.1,8.1,14,0.00,CLR,,0.00,624.0,WeatherDisplay:10.37,2013-08-06 23:53:00,
2013-08-06 16:55:00,91.3,35.4,29.93,NW,306,10.4,10.4,14,0.00,CLR,,0.00,624.0,WeatherDisplay:10.37,2013-08-06 23:55:00,
2013-08-06 16:57:00,91.1,35.3,29.93,WNW,301,11.5,11.5,14,0.00,CLR,,0.00,620.4,WeatherDisplay:10.37,2013-08-06 23:57:00,
2013-08-06 16:58:00,90.9,33.2,29.93,NW,305,10.0,10.0,13,0.00,CLR,,0.00,614.4,WeatherDisplay:10.37,2013-08-06 23:58:00,
2013-08-06 17:00:00,90.6,34.9,29.92,WNW,287,11.5,11.5,14,0.00,CLR,,0.00,595.2,WeatherDisplay:10.37,2013-08-07 00:00:00,
2013-08-06 17:01:00,90.6,34.9,29.93,WNW,302,10.4,10.4,14,0.00,CLR,,0.00,595.2,WeatherDisplay:10.37,2013-08-07 00:01:00,
2013-08-06 17:02:00,90.6,34.9,29.93,NW,319,11.5,11.5,14,0.00,CLR,,0.00,590.4,WeatherDisplay:10.37,2013-08-07 00:02:00,
2013-08-06 17:03:00,90.5,34.8,29.93,NW,317,11.5,11.5,14,0.00,CLR,,0.00,588.0,WeatherDisplay:10.37,2013-08-07 00:03:00,
2013-08-06 17:05:00,90.2,32.7,29.93,NW,321,11.5,11.5,13,0.00,CLR,,0.00,578.4,WeatherDisplay:10.37,2013-08-07 00:05:00,
2013-08-06 17:06:00,89.9,34.3,29.92,NW,315,9.2,9.2,14,0.00,CLR,,0.00,576.0,WeatherDisplay:10.37,2013-08-07 00:06:00,
2013-08-06 17:07:00,89.9,34.3,29.92,WNW,289,13.0,13.0,14,0.00,CLR,,0.00,573.6,WeatherDisplay:10.37,2013-08-07 00:07:00,
2013-08-06 17:08:00,89.8,34.2,29.92,WNW,298,12.7,12.7,14,0.00,CLR,,0.00,570.0,WeatherDisplay:10.37,2013-08-07 00:08:00,
2013-08-06 17:10:00,90.1,34.5,29.92,WNW,286,11.0,11.0,14,0.00,CLR,,0.00,570.0,WeatherDisplay:10.37,2013-08-07 00:10:00,
2013-08-06 17:12:00,90.2,32.7,29.92,WNW,288,11.5,11.5,13,0.00,CLR,,0.00,567.6,WeatherDisplay:10.37,2013-08-07 00:12:00,
2013-08-06 17:13:00,90.4,32.9,29.92,WNW,288,13.8,13.8,13,0.00,CLR,,0.00,565.2,WeatherDisplay:10.37,2013-08-07 00:13:00,
2013-08-06 17:14:00,90.6,33.0,29.92,WNW,292,11.5,11.5,13,0.00,CLR,,0.00,562.8,WeatherDisplay:10.37,2013-08-07 00:14:00,
2013-08-06 17:15:00,90.8,33.2,29.92,WNW,298,13.8,13.8,13,0.00,CLR,,0.00,556.8,WeatherDisplay:10.37,2013-08-07 00:15:00,
2013-08-06 17:17:00,90.2,34.6,29.92,NNW,337,11.5,11.5,14,0.00,CLR,,0.00,537.6,WeatherDisplay:10.37,2013-08-07 00:17:00,
2013-08-06 17:18:00,90.0,34.4,29.92,West,281,11.5,11.5,14,0.00,CLR,,0.00,531.6,WeatherDisplay:10.37,2013-08-07 00:18:00,
2013-08-06 17:19:00,89.8,34.2,29.92,WNW,292,11.5,11.5,14,0.00,CLR,,0.00,525.6,WeatherDisplay:10.37,2013-08-07 00:19:00,
2013-08-06 17:20:00,89.8,34.2,29.92,NW,323,11.5,11.5,14,0.00,CLR,,0.00,523.2,WeatherDisplay:10.37,2013-08-07 00:20:00,
2013-08-06 17:21:00,89.8,34.2,29.92,WNW,296,10.4,10.4,14,0.00,CLR,,0.00,523.2,WeatherDisplay:10.37,2013-08-07 00:21:00,
2013-08-06 17:22:00,89.7,32.3,29.92,NNW,335,10.4,10.4,13,0.00,CLR,,0.00,523.2,WeatherDisplay:10.37,2013-08-07 00:22:00,
2013-08-06 17:24:00,89.7,34.2,29.92,NW,318,11.5,11.5,14,0.00,CLR,,0.00,525.6,WeatherDisplay:10.37,2013-08-07 00:24:00,
2013-08-06 17:25:00,89.7,34.2,29.92,NNW,333,11.5,11.5,14,0.00,CLR,,0.00,525.6,WeatherDisplay:10.37,2013-08-07 00:25:00,
2013-08-06 17:26:00,89.7,34.2,29.92,WNW,300,8.1,8.1,14,0.00,CLR,,0.00,520.8,WeatherDisplay:10.37,2013-08-07 00:26:00,
2013-08-06 17:27:00,89.9,34.3,29.92,WNW,297,9.2,9.2,14,0.00,CLR,,0.00,517.2,WeatherDisplay:10.37,2013-08-07 00:27:00,
2013-08-06 17:29:00,90.3,34.6,29.92,NW,304,9.0,9.0,14,0.00,CLR,,0.00,506.4,WeatherDisplay:10.37,2013-08-07 00:29:00,
2013-08-06 17:30:00,90.4,34.7,29.92,NW,311,10.0,10.0,14,0.00,CLR,,0.00,501.6,WeatherDisplay:10.37,2013-08-07 00:30:00,
2013-08-06 17:32:00,90.6,34.9,29.92,WNW,287,10.4,10.4,14,0.00,CLR,,0.00,495.6,WeatherDisplay:10.37,2013-08-07 00:32:00,
2013-08-06 17:33:00,90.5,32.9,29.92,WNW,293,10.4,10.4,13,0.00,CLR,,0.00,489.6,WeatherDisplay:10.37,2013-08-07 00:33:00,
2013-08-06 17:35:00,90.4,32.9,29.92,WNW,294,13.8,13.8,13,0.00,CLR,,0.00,475.2,WeatherDisplay:10.37,2013-08-07 00:35:00,
2013-08-06 17:36:00,90.2,34.6,29.92,WNW,299,14.0,14.0,14,0.00,CLR,,0.00,472.8,WeatherDisplay:10.37,2013-08-07 00:36:00,
2013-08-06 17:37:00,89.9,34.3,29.92,NW,313,13.8,13.8,14,0.00,CLR,,0.00,470.4,WeatherDisplay:10.37,2013-08-07 00:37:00,
2013-08-06 17:38:00,89.7,34.2,29.92,West,273,11.5,11.5,14,0.00,CLR,,0.00,472.8,WeatherDisplay:10.37,2013-08-07 00:38:00,
2013-08-06 17:41:00,89.9,34.3,29.92,WNW,284,10.4,10.4,14,0.00,CLR,,0.00,464.4,WeatherDisplay:10.37,2013-08-07 00:41:00,
2013-08-06 17:42:00,90.1,34.5,29.92,WNW,284,9.2,9.2,14,0.00,CLR,,0.00,462.0,WeatherDisplay:10.37,2013-08-07 00:42:00,
2013-08-06 17:43:00,90.1,34.5,29.92,WNW,294,11.5,11.5,14,0.00,CLR,,0.00,457.2,WeatherDisplay:10.37,2013-08-07 00:43:00,
2013-08-06 17:46:00,90.3,34.6,29.92,West,275,8.1,8.1,14,0.00,CLR,,0.00,440.4,WeatherDisplay:10.37,2013-08-07 00:46:00,
2013-08-06 17:47:00,90.4,34.7,29.92,WNW,302,6.9,6.9,14,0.00,CLR,,0.00,436.8,WeatherDisplay:10.37,2013-08-07 00:47:00,
2013-08-06 17:48:00,90.5,34.8,29.92,WNW,302,11.0,11.0,14,0.00,CLR,,0.00,432.0,WeatherDisplay:10.37,2013-08-07 00:48:00,
2013-08-06 17:51:00,89.9,34.3,29.92,NW,317,11.5,11.5,14,0.00,CLR,,0.00,428.4,WeatherDisplay:10.37,2013-08-07 00:51:00,
2013-08-06 17:52:00,89.7,34.2,29.92,NW,311,11.5,11.5,14,0.00,CLR,,0.00,422.4,WeatherDisplay:10.37,2013-08-07 00:52:00,
2013-08-06 17:53:00,89.6,35.8,29.92,West,270,10.4,10.4,15,0.00,CLR,,0.00,420.0,WeatherDisplay:10.37,2013-08-07 00:53:00,
2013-08-06 17:56:00,89.8,36.0,29.92,WNW,302,8.1,8.1,15,0.00,CLR,,0.00,403.2,WeatherDisplay:10.37,2013-08-07 00:56:00,
2013-08-06 17:58:00,89.7,35.9,29.92,NW,320,9.0,9.0,15,0.00,CLR,,0.00,398.4,WeatherDisplay:10.37,2013-08-07 00:58:00,
2013-08-06 18:01:00,89.5,35.7,29.92,NNW,333,11.5,11.5,15,0.00,CLR,,0.00,390.0,WeatherDisplay:10.37,2013-08-07 01:01:00,
2013-08-06 18:03:00,89.6,37.5,29.92,WNW,290,8.1,8.1,16,0.00,CLR,,0.00,378.0,WeatherDisplay:10.37,2013-08-07 01:03:00,
2013-08-06 18:04:00,89.5,35.7,29.92,NNW,337,10.0,10.0,15,0.00,CLR,,0.00,378.0,WeatherDisplay:10.37,2013-08-07 01:04:00,
2013-08-06 18:07:00,88.9,36.9,29.92,NW,311,13.8,13.8,16,0.00,CLR,,0.00,373.2,WeatherDisplay:10.37,2013-08-07 01:07:00,
2013-08-06 18:08:00,88.6,36.7,29.92,WNW,300,11.5,11.5,16,0.00,CLR,,0.00,364.8,WeatherDisplay:10.37,2013-08-07 01:08:00,
2013-08-06 18:09:00,88.6,38.2,29.92,North,349,11.5,11.5,17,0.00,CLR,,0.00,361.2,WeatherDisplay:10.37,2013-08-07 01:09:00,
2013-08-06 18:12:00,88.8,36.8,29.92,NNW,340,6.9,6.9,16,0.00,CLR,,0.00,358.8,WeatherDisplay:10.37,2013-08-07 01:12:00,
2013-08-06 18:13:00,88.8,36.8,29.92,NW,324,11.5,11.5,16,0.00,CLR,,0.00,350.4,WeatherDisplay:10.37,2013-08-07 01:13:00,
2013-08-06 18:14:00,88.8,36.8,29.92,WNW,300,11.5,11.5,16,0.00,CLR,,0.00,350.4,WeatherDisplay:10.37,2013-08-07 01:14:00,
2013-08-06 18:15:00,88.9,36.9,29.92,NW,307,11.5,11.5,16,0.00,CLR,,0.00,345.6,WeatherDisplay:10.37,2013-08-07 01:15:00,
2013-08-06 18:17:00,88.8,36.8,29.92,NW,313,9.2,9.2,16,0.00,CLR,,0.00,339.6,WeatherDisplay:10.37,2013-08-07 01:17:00,
2013-08-06 18:19:00,88.6,38.2,29.92,NW,308,9.2,9.2,17,0.00,CLR,,0.00,333.6,WeatherDisplay:10.37,2013-08-07 01:19:00,
2013-08-06 18:20:00,88.6,38.2,29.92,NW,321,11.0,11.0,17,0.00,CLR,,0.00,331.2,WeatherDisplay:10.37,2013-08-07 01:20:00,
2013-08-06 18:22:00,88.3,38.0,29.92,NW,319,8.1,8.1,17,0.00,CLR,,0.00,320.4,WeatherDisplay:10.37,2013-08-07 01:22:00,
2013-08-06 18:24:00,88.2,37.9,29.92,NNW,329,8.1,8.1,17,0.00,CLR,,0.00,314.4,WeatherDisplay:10.37,2013-08-07 01:24:00,
2013-08-06 18:25:00,88.1,37.8,29.92,NW,319,10.0,10.0,17,0.00,CLR,,0.00,314.4,WeatherDisplay:10.37,2013-08-07 01:25:00,
2013-08-06 18:27:00,87.9,37.6,29.92,NNW,337,9.2,9.2,17,0.00,CLR,,0.00,300.0,WeatherDisplay:10.37,2013-08-07 01:27:00,
2013-08-06 18:29:00,88.0,37.7,29.92,NW,307,9.2,9.2,17,0.00,CLR,,0.00,295.2,WeatherDisplay:10.37,2013-08-07 01:29:00,
2013-08-06 18:30:00,87.9,37.6,29.92,NW,307,8.1,8.1,17,0.00,CLR,,0.00,291.6,WeatherDisplay:10.37,2013-08-07 01:30:00,
2013-08-06 18:31:00,87.8,37.6,29.92,NW,307,12.7,12.7,17,0.00,CLR,,0.00,291.6,WeatherDisplay:10.37,2013-08-07 01:31:00,
2013-08-06 18:32:00,87.7,37.5,29.92,WNW,303,11.5,11.5,17,0.00,CLR,,0.00,286.8,WeatherDisplay:10.37,2013-08-07 01:32:00,
2013-08-06 18:34:00,87.6,37.4,29.92,NW,313,13.8,13.8,17,0.00,CLR,,0.00,283.2,WeatherDisplay:10.37,2013-08-07 01:34:00,
2013-08-06 18:35:00,87.4,37.2,29.92,WNW,297,12.7,12.7,17,0.00,CLR,,0.00,276.0,WeatherDisplay:10.37,2013-08-07 01:35:00,
2013-08-06 18:38:00,87.1,37.0,29.92,WNW,287,11.5,11.5,17,0.00,CLR,,0.00,270.0,WeatherDisplay:10.37,2013-08-07 01:38:00,
2013-08-06 18:40:00,87.2,37.1,29.92,NNW,336,10.4,10.4,17,0.00,CLR,,0.00,259.2,WeatherDisplay:10.37,2013-08-07 01:40:00,
2013-08-06 18:41:00,87.1,37.0,29.92,NW,314,9.0,9.0,17,0.00,CLR,,0.00,255.6,WeatherDisplay:10.37,2013-08-07 01:41:00,
2013-08-06 18:43:00,87.0,36.9,29.93,NW,306,11.5,11.5,17,0.00,CLR,,0.00,253.2,WeatherDisplay:10.37,2013-08-07 01:43:00,
2013-08-06 18:46:00,86.7,36.7,29.93,WNW,302,10.4,10.4,17,0.00,CLR,,0.00,248.4,WeatherDisplay:10.37,2013-08-07 01:46:00,
2013-08-06 18:48:00,86.7,36.7,29.93,WNW,302,12.7,12.7,17,0.00,CLR,,0.00,253.2,WeatherDisplay:10.37,2013-08-07 01:48:00,
2013-08-06 18:51:00,86.8,36.7,29.93,NW,312,15.0,15.0,17,0.00,CLR,,0.00,250.8,WeatherDisplay:10.37,2013-08-07 01:51:00,
2013-08-06 18:53:00,86.5,36.5,29.93,WNW,288,13.8,13.8,17,0.00,CLR,,0.00,247.2,WeatherDisplay:10.37,2013-08-07 01:53:00,
2013-08-06 18:56:00,86.4,36.4,29.93,WNW,298,12.0,12.0,17,0.00,CLR,,0.00,244.8,WeatherDisplay:10.37,2013-08-07 01:56:00,
2013-08-06 18:57:00,86.3,36.3,29.93,NW,312,11.5,11.5,17,0.00,CLR,,0.00,247.2,WeatherDisplay:10.37,2013-08-07 01:57:00,
2013-08-06 18:58:00,86.2,36.3,29.93,WNW,303,13.8,13.8,17,0.00,CLR,,0.00,247.2,WeatherDisplay:10.37,2013-08-07 01:58:00,
2013-08-06 18:59:00,86.2,36.3,29.93,NW,323,13.8,13.8,17,0.00,CLR,,0.00,244.8,WeatherDisplay:10.37,2013-08-07 01:59:00,
2013-08-06 19:01:00,86.2,37.7,29.93,WNW,297,10.4,10.4,18,0.00,CLR,,0.00,242.4,WeatherDisplay:10.37,2013-08-07 02:01:00,
2013-08-06 19:02:00,86.2,36.3,29.93,WNW,296,12.7,12.7,17,0.00,CLR,,0.00,238.8,WeatherDisplay:10.37,2013-08-07 02:02:00,
2013-08-06 19:04:00,86.2,37.7,29.93,WNW,293,10.4,10.4,18,0.00,CLR,,0.00,238.8,WeatherDisplay:10.37,2013-08-07 02:04:00,
2013-08-06 19:06:00,86.2,37.7,29.93,WNW,290,11.5,11.5,18,0.00,CLR,,0.00,236.4,WeatherDisplay:10.37,2013-08-07 02:06:00,
2013-08-06 19:07:00,86.0,37.5,29.93,WNW,302,10.4,10.4,18,0.00,CLR,,0.00,231.6,WeatherDisplay:10.37,2013-08-07 02:07:00,
2013-08-06 19:09:00,85.9,37.5,29.93,NW,309,11.5,11.5,18,0.00,CLR,,0.00,225.6,WeatherDisplay:10.37,2013-08-07 02:09:00,
2013-08-06 19:11:00,86.0,37.5,29.93,NW,314,8.1,8.1,18,0.00,CLR,,0.00,219.6,WeatherDisplay:10.37,2013-08-07 02:11:00,
2013-08-06 19:12:00,86.1,37.6,29.93,NW,323,5.8,5.8,18,0.00,CLR,,0.00,214.8,WeatherDisplay:10.37,2013-08-07 02:12:00,
2013-08-06 19:14:00,86.1,37.6,29.93,NW,315,10.0,10.0,18,0.00,CLR,,0.00,208.8,WeatherDisplay:10.37,2013-08-07 02:14:00,
2013-08-06 19:17:00,85.7,37.3,29.93,WNW,292,10.4,10.4,18,0.00,CLR,,0.00,202.8,WeatherDisplay:10.37,2013-08-07 02:17:00,
2013-08-06 19:18:00,85.6,37.2,29.93,WNW,298,9.2,9.2,18,0.00,CLR,,0.00,200.4,WeatherDisplay:10.37,2013-08-07 02:18:00,
2013-08-06 19:19:00,85.7,37.3,29.93,NW,311,7.0,7.0,18,0.00,CLR,,0.00,192.0,WeatherDisplay:10.37,2013-08-07 02:19:00,
2013-08-06 19:20:00,85.7,37.3,29.93,WNW,287,6.9,6.9,18,0.00,CLR,,0.00,187.2,WeatherDisplay:10.37,2013-08-07 02:20:00,
2013-08-06 19:22:00,85.7,37.3,29.94,WNW,288,9.0,9.0,18,0.00,CLR,,0.00,181.2,WeatherDisplay:10.37,2013-08-07 02:22:00,
2013-08-06 19:23:00,85.6,37.2,29.94,West,280,10.4,10.4,18,0.00,CLR,,0.00,177.6,WeatherDisplay:10.37,2013-08-07 02:23:00,
2013-08-06 19:24:00,85.6,37.2,29.94,WNW,288,6.0,6.0,18,0.00,CLR,,0.00,169.2,WeatherDisplay:10.37,2013-08-07 02:24:00,
2013-08-06 19:25:00,85.6,37.2,29.94,West,276,10.0,10.0,18,0.00,CLR,,0.00,164.4,WeatherDisplay:10.37,2013-08-07 02:25:00,
2013-08-06 19:27:00,85.4,37.1,29.94,NW,309,10.4,10.4,18,0.00,CLR,,0.00,156.0,WeatherDisplay:10.37,2013-08-07 02:27:00,
2013-08-06 19:28:00,85.2,36.9,29.94,WNW,287,11.5,11.5,18,0.00,CLR,,0.00,152.4,WeatherDisplay:10.37,2013-08-07 02:28:00,
2013-08-06 19:29:00,85.1,36.8,29.94,NW,306,11.5,11.5,18,0.00,CLR,,0.00,150.0,WeatherDisplay:10.37,2013-08-07 02:29:00,
2013-08-06 19:30:00,85.1,36.8,29.94,NNW,327,6.9,6.9,18,0.00,CLR,,0.00,141.6,WeatherDisplay:10.37,2013-08-07 02:30:00,
2013-08-06 19:32:00,84.9,36.7,29.94,NW,306,8.1,8.1,18,0.00,CLR,,0.00,133.2,WeatherDisplay:10.37,2013-08-07 02:32:00,
2013-08-06 19:33:00,84.9,36.7,29.94,WNW,285,6.9,6.9,18,0.00,CLR,,0.00,128.4,WeatherDisplay:10.37,2013-08-07 02:33:00,
2013-08-06 19:34:00,84.8,36.6,29.94,WNW,292,8.1,8.1,18,0.00,CLR,,0.00,122.4,WeatherDisplay:10.37,2013-08-07 02:34:00,
2013-08-06 19:35:00,84.7,36.5,29.94,NW,311,8.1,8.1,18,0.00,CLR,,0.00,117.6,WeatherDisplay:10.37,2013-08-07 02:35:00,
2013-08-06 19:37:00,84.5,36.3,29.94,NW,310,8.0,8.0,18,0.00,CLR,,0.00,109.2,WeatherDisplay:10.37,2013-08-07 02:37:00,
2013-08-06 19:38:00,84.4,36.2,29.94,West,269,9.2,9.2,18,0.00,CLR,,0.00,109.2,WeatherDisplay:10.37,2013-08-07 02:38:00,
2013-08-06 19:40:00,84.2,36.1,29.94,WNW,284,11.5,11.5,18,0.00,CLR,,0.00,99.6,WeatherDisplay:10.37,2013-08-07 02:40:00,
2013-08-06 19:41:00,84.2,36.1,29.94,WNW,293,11.5,11.5,18,0.00,CLR,,0.00,94.8,WeatherDisplay:10.37,2013-08-07 02:41:00,
2013-08-06 19:42:00,84.1,36.0,29.94,NW,306,6.9,6.9,18,0.00,CLR,,0.00,80.4,WeatherDisplay:10.37,2013-08-07 02:42:00,
2013-08-06 19:43:00,84.0,35.9,29.94,NW,309,10.0,10.0,18,0.00,CLR,,0.00,74.4,WeatherDisplay:10.37,2013-08-07 02:43:00,
2013-08-06 19:44:00,83.9,35.8,29.95,NW,304,10.4,10.4,18,0.00,CLR,,0.00,69.6,WeatherDisplay:10.37,2013-08-07 02:44:00,
2013-08-06 19:45:00,83.8,35.8,29.94,WNW,303,11.5,11.5,18,0.00,FEW,,0.00,61.2,WeatherDisplay:10.37,2013-08-07 02:45:00,
2013-08-06 19:46:00,83.7,35.7,29.94,NW,306,11.5,11.5,18,0.00,FEW,,0.00,61.2,WeatherDisplay:10.37,2013-08-07 02:46:00,
2013-08-06 19:48:00,83.5,35.5,29.95,WNW,291,9.2,9.2,18,0.00,FEW,,0.00,52.8,WeatherDisplay:10.37,2013-08-07 02:48:00,
2013-08-06 19:49:00,83.4,35.4,29.94,WNW,300,9.2,9.2,18,0.00,SCT,,0.00,48.0,WeatherDisplay:10.37,2013-08-07 02:49:00,
2013-08-06 19:51:00,83.2,35.3,29.95,WNW,298,12.7,12.7,18,0.00,SCT,,0.00,46.8,WeatherDisplay:10.37,2013-08-07 02:51:00,
2013-08-06 19:53:00,83.0,35.1,29.95,WNW,292,9.2,9.2,18,0.00,SCT,,0.00,44.4,WeatherDisplay:10.37,2013-08-07 02:53:00,
2013-08-06 19:54:00,82.9,35.0,29.95,WNW,298,11.5,11.5,18,0.00,SCT,,0.00,42.0,WeatherDisplay:10.37,2013-08-07 02:54:00,
2013-08-06 19:56:00,82.9,35.0,29.95,WNW,295,10.4,10.4,18,0.00,SCT,,0.00,39.6,WeatherDisplay:10.37,2013-08-07 02:56:00,
2013-08-06 19:58:00,82.7,34.9,29.95,WNW,303,10.4,10.4,18,0.00,FEW,,0.00,38.4,WeatherDisplay:10.37,2013-08-07 02:58:00,
2013-08-06 19:59:00,82.7,34.9,29.95,WNW,290,10.4,10.4,18,0.00,FEW,,0.00,38.4,WeatherDisplay:10.37,2013-08-07 02:59:00,
2013-08-06 20:01:00,82.5,34.7,29.95,NW,306,9.2,9.2,18,0.00,FEW,,0.00,36.0,WeatherDisplay:10.37,2013-08-07 03:01:00,
2013-08-06 20:02:00,82.5,36.1,29.95,NW,325,9.2,9.2,19,0.00,FEW,,0.00,36.0,WeatherDisplay:10.37,2013-08-07 03:02:00,
2013-08-06 20:03:00,82.4,36.0,29.95,WNW,298,8.1,8.1,19,0.00,CLR,,0.00,33.6,WeatherDisplay:10.37,2013-08-07 03:03:00,
2013-08-06 20:04:00,82.4,36.0,29.95,WNW,293,8.1,8.1,19,0.00,CLR,,0.00,33.6,WeatherDisplay:10.37,2013-08-07 03:04:00,
2013-08-06 20:05:00,82.3,35.9,29.95,NW,306,8.1,8.1,19,0.00,FEW,,0.00,31.2,WeatherDisplay:10.37,2013-08-07 03:05:00,
2013-08-06 20:06:00,82.2,35.8,29.95,WNW,298,8.1,8.1,19,0.00,FEW,,0.00,30.0,WeatherDisplay:10.37,2013-08-07 03:06:00,
2013-08-06 20:07:00,82.2,35.8,29.95,WNW,288,9.2,9.2,19,0.00,FEW,,0.00,27.6,WeatherDisplay:10.37,2013-08-07 03:07:00,
2013-08-06 20:09:00,82.0,35.7,29.95,NW,307,8.1,8.1,19,0.00,CLR,,0.00,25.2,WeatherDisplay:10.37,2013-08-07 03:09:00,
2013-08-06 20:11:00,81.9,35.6,29.95,NW,307,10.4,10.4,19,0.00,FEW,,0.00,22.8,WeatherDisplay:10.37,2013-08-07 03:11:00,
2013-08-06 20:12:00,81.8,35.5,29.95,WNW,294,9.2,9.2,19,0.00,CLR,,0.00,21.6,WeatherDisplay:10.37,2013-08-07 03:12:00,
2013-08-06 20:14:00,81.8,35.5,29.95,WNW,288,8.1,8.1,19,0.00,CLR,,0.00,19.2,WeatherDisplay:10.37,2013-08-07 03:14:00,
2013-08-06 20:15:00,81.7,35.4,29.95,WNW,300,8.1,8.1,19,0.00,CLR,,0.00,16.8,WeatherDisplay:10.37,2013-08-07 03:15:00,
2013-08-06 20:16:00,81.7,35.4,29.95,NW,306,9.2,9.2,19,0.00,CLR,,0.00,16.8,WeatherDisplay:10.37,2013-08-07 03:16:00,
2013-08-06 20:17:00,81.6,35.3,29.95,WNW,286,8.0,8.0,19,0.00,CLR,,0.00,16.8,WeatherDisplay:10.37,2013-08-07 03:17:00,
2013-08-06 20:19:00,81.6,36.6,29.95,WNW,290,8.1,8.1,20,0.00,CLR,,0.00,14.4,WeatherDisplay:10.37,2013-08-07 03:19:00,
2013-08-06 20:20:00,81.5,36.5,29.95,NW,309,8.1,8.1,20,0.00,CLR,,0.00,14.4,WeatherDisplay:10.37,2013-08-07 03:20:00,
2013-08-06 20:21:00,81.4,36.5,29.95,WNW,296,8.1,8.1,20,0.00,CLR,,0.00,14.4,WeatherDisplay:10.37,2013-08-07 03:21:00,
2013-08-06 20:22:00,81.4,36.5,29.95,WNW,301,8.1,8.1,20,0.00,CLR,,0.00,14.4,WeatherDisplay:10.37,2013-08-07 03:22:00,
2013-08-06 20:24:00,81.2,36.3,29.95,WNW,289,6.9,6.9,20,0.00,CLR,,0.00,14.4,WeatherDisplay:10.37,2013-08-07 03:24:00,
2013-08-06 20:25:00,81.2,36.3,29.95,WNW,292,6.9,6.9,20,0.00,CLR,,0.00,14.4,WeatherDisplay:10.37,2013-08-07 03:25:00,
2013-08-06 20:26:00,81.1,36.2,29.96,WNW,290,5.8,5.8,20,0.00,,,0.00,13.2,WeatherDisplay:10.37,2013-08-07 03:26:00,
2013-08-06 20:27:00,81.0,36.1,29.96,WNW,290,4.6,4.6,20,0.00,,,0.00,13.2,WeatherDisplay:10.37,2013-08-07 03:27:00,
2013-08-06 20:30:00,80.8,36.0,29.96,West,281,6.0,6.0,20,0.00,,,0.00,13.2,WeatherDisplay:10.37,2013-08-07 03:30:00,
2013-08-06 20:32:00,80.7,35.9,29.96,WNW,300,5.8,5.8,20,0.00,,,0.00,10.8,WeatherDisplay:10.37,2013-08-07 03:32:00,
2013-08-06 20:35:00,80.5,37.0,29.96,NW,304,4.6,4.6,21,0.00,,,0.00,8.4,WeatherDisplay:10.37,2013-08-07 03:35:00,
2013-08-06 20:37:00,80.3,36.8,29.96,NW,306,5.8,5.8,21,0.00,,,0.00,0.0,WeatherDisplay:10.37,2013-08-07 03:37:00,
2013-08-06 20:40:00,80.0,36.5,29.96,NW,310,6.0,6.0,21,0.00,,,0.00,0.0,WeatherDisplay:10.37,2013-08-07 03:40:00,
2013-08-06 20:41:00,80.0,37.7,29.96,NW,306,5.8,5.8,22,0.00,,,0.00,0.0,WeatherDisplay:10.37,2013-08-07 03:41:00,
2013-08-06 20:42:00,79.9,37.6,29.96,NW,306,5.8,5.8,22,0.00,,,0.00,0.0,WeatherDisplay:10.37,2013-08-07 03:42:00,
2013-08-06 20:45:00,79.7,37.5,29.96,NW,304,4.0,4.0,22,0.00,,,0.00,0.0,WeatherDisplay:10.37,2013-08-07 03:45:00,
2013-08-06 20:46:00,79.6,37.4,29.96,NW,304,4.6,4.6,22,0.00,,,0.00,0.0,WeatherDisplay:10.37,2013-08-07 03:46:00,
2013-08-06 20:47:00,79.5,37.3,29.96,NW,304,3.5,3.5,22,0.00,,,0.00,0.0,WeatherDisplay:10.37,2013-08-07 03:47:00,
2013-08-06 20:48:00,79.5,38.4,29.96,NW,304,4.0,4.0,23,0.00,,,0.00,0.0,WeatherDisplay:10.37,2013-08-07 03:48:00,
2013-08-06 20:50:00,79.3,38.3,29.96,WNW,289,3.5,3.5,23,0.00,,,0.00,0.0,WeatherDisplay:10.37,2013-08-07 03:50:00,
2013-08-06 20:52:00,79.2,38.2,29.96,WNW,289,3.5,3.5,23,0.00,,,0.00,0.0,WeatherDisplay:10.37,2013-08-07 03:52:00,
2013-08-06 20:53:00,79.1,38.1,29.96,WNW,288,4.0,4.0,23,0.00,,,0.00,0.0,WeatherDisplay:10.37,2013-08-07 03:53:00,
2013-08-06 20:56:00,78.9,37.9,29.97,WNW,294,4.6,4.6,23,0.00,,,0.00,0.0,WeatherDisplay:10.37,2013-08-07 03:56:00,
2013-08-06 20:57:00,78.9,39.0,29.97,WNW,296,4.6,4.6,24,0.00,,,0.00,0.0,WeatherDisplay:10.37,2013-08-07 03:57:00,
2013-08-06 20:58:00,78.8,38.9,29.97,WNW,296,4.0,4.0,24,0.00,,,0.00,0.0,WeatherDisplay:10.37,2013-08-07 03:58:00,
2013-08-06 21:01:00,78.6,38.8,29.97,WNW,296,3.5,3.5,24,0.00,,,0.00,0.0,WeatherDisplay:10.37,2013-08-07 04:01:00,
2013-08-06 21:02:00,78.5,38.7,29.97,WNW,296,3.5,3.5,24,0.00,,,0.00,0.0,WeatherDisplay:10.37,2013-08-07 04:02:00,
2013-08-06 21:06:00,78.2,39.5,29.97,WNW,301,3.5,3.5,25,0.00,,,0.00,0.0,WeatherDisplay:10.37,2013-08-07 04:06:00,
2013-08-06 21:07:00,78.2,39.5,29.97,WNW,300,3.5,3.5,25,0.00,,,0.00,0.0,WeatherDisplay:10.37,2013-08-07 04:07:00,
2013-08-06 21:08:00,78.1,39.4,29.97,WNW,300,4.0,4.0,25,0.00,,,0.00,0.0,WeatherDisplay:10.37,2013-08-07 04:08:00,
2013-08-06 21:12:00,77.9,40.2,29.97,WNW,291,4.6,4.6,26,0.00,,,0.00,0.0,WeatherDisplay:10.37,2013-08-07 04:12:00,
2013-08-06 21:13:00,77.8,41.1,29.97,WNW,294,3.5,3.5,27,0.00,,,0.00,0.0,WeatherDisplay:10.37,2013-08-07 04:13:00,
2013-08-06 21:14:00,77.7,41.0,29.97,WNW,294,4.6,4.6,27,0.00,,,0.00,0.0,WeatherDisplay:10.37,2013-08-07 04:14:00,
2013-08-06 21:17:00,77.5,40.9,29.97,WNW,294,3.5,3.5,27,0.00,,,0.00,0.0,WeatherDisplay:10.37,2013-08-07 04:17:00,
2013-08-06 21:18:00,77.4,40.8,29.97,WNW,294,3.5,3.5,27,0.00,,,0.00,0.0,WeatherDisplay:10.37,2013-08-07 04:18:00,
2013-08-06 21:19:00,77.4,41.7,29.97,WNW,293,3.5,3.5,28,0.00,,,0.00,0.0,WeatherDisplay:10.37,2013-08-07 04:19:00,
2013-08-06 21:22:00,77.1,41.5,29.97,WNW,292,3.0,3.0,28,0.00,,,0.00,0.0,WeatherDisplay:10.37,2013-08-07 04:22:00,
2013-08-06 21:23:00,77.1,41.5,29.97,West,277,3.5,3.5,28,0.00,,,0.00,0.0,WeatherDisplay:10.37,2013-08-07 04:23:00,
2013-08-06 21:26:00,77.2,41.6,29.97,WNW,283,5.8,5.8,28,0.00,,,0.00,0.0,WeatherDisplay:10.37,2013-08-07 04:26:00,
2013-08-06 21:27:00,77.2,41.6,29.97,West,274,4.6,4.6,28,0.00,,,0.00,0.0,WeatherDisplay:10.37,2013-08-07 04:27:00,
2013-08-06 21:28:00,77.2,41.6,29.97,West,274,4.6,4.6,28,0.00,,,0.00,0.0,WeatherDisplay:10.37,2013-08-07 04:28:00,
2013-08-06 21:29:00,77.1,42.4,29.97,WNW,299,4.6,4.6,29,0.00,,,0.00,0.0,WeatherDisplay:10.37,2013-08-07 04:29:00,
2013-08-06 21:31:00,77.0,42.3,29.97,WNW,289,3.5,3.5,29,0.00,,,0.00,0.0,WeatherDisplay:10.37,2013-08-07 04:31:00,
2013-08-06 21:33:00,76.8,42.1,29.97,WNW,297,5.0,5.0,29,0.00,,,0.00,0.0,WeatherDisplay:10.37,2013-08-07 04:33:00,
2013-08-06 21:34:00,76.8,42.1,29.97,WNW,298,4.6,4.6,29,0.00,,,0.00,0.0,WeatherDisplay:10.37,2013-08-07 04:34:00,
2013-08-06 21:37:00,76.6,42.8,29.97,NW,317,2.3,2.3,30,0.00,,,0.00,0.0,WeatherDisplay:10.37,2013-08-07 04:37:00,
2013-08-06 21:38:00,76.5,42.7,29.97,NW,317,2.3,2.3,30,0.00,,,0.00,0.0,WeatherDisplay:10.37,2013-08-07 04:38:00,
2013-08-06 21:39:00,76.4,42.7,29.98,NW,317,1.2,0.0,30,0.00,,,0.00,0.0,WeatherDisplay:10.37,2013-08-07 04:39:00,
2013-08-06 21:40:00,76.2,42.5,29.98,NW,317,1.2,0.0,30,0.00,,,0.00,0.0,WeatherDisplay:10.37,2013-08-07 04:40:00,
2013-08-06 21:42:00,75.9,42.2,29.98,NW,324,2.0,2.0,30,0.00,,,0.00,0.0,WeatherDisplay:10.37,2013-08-07 04:42:00,
2013-08-06 21:43:00,75.9,42.2,29.98,NNW,329,3.5,3.5,30,0.00,,,0.00,0.0,WeatherDisplay:10.37,2013-08-07 04:43:00,
2013-08-06 21:44:00,75.9,42.2,29.98,NNW,332,3.5,3.5,30,0.00,,,0.00,0.0,WeatherDisplay:10.37,2013-08-07 04:44:00,
2013-08-06 21:45:00,75.8,42.1,29.98,NNW,342,3.5,3.5,30,0.00,,,0.00,0.0,WeatherDisplay:10.37,2013-08-07 04:45:00,
2013-08-06 21:47:00,75.7,42.1,29.98,North,9,3.5,3.5,30,0.00,,,0.00,0.0,WeatherDisplay:10.37,2013-08-07 04:47:00,
2013-08-06 21:49:00,75.5,42.7,29.98,North,9,1.2,1.2,31,0.00,,,0.00,0.0,WeatherDisplay:10.37,2013-08-07 04:49:00,
2013-08-06 21:50:00,75.3,42.6,29.98,North,9,1.2,0.0,31,0.00,,,0.00,0.0,WeatherDisplay:10.37,2013-08-07 04:50:00,
2013-08-06 21:51:00,75.3,42.6,29.98,North,9,1.2,1.2,31,0.00,,,0.00,0.0,WeatherDisplay:10.37,2013-08-07 04:51:00,
2013-08-06 21:53:00,75.1,42.4,29.98,North,9,2.3,2.3,31,0.00,,,0.00,0.0,WeatherDisplay:10.37,2013-08-07 04:53:00,
2013-08-06 21:54:00,75.1,43.2,29.98,North,5,2.3,2.3,32,0.00,,,0.00,0.0,WeatherDisplay:10.37,2013-08-07 04:54:00,
2013-08-06 21:55:00,74.9,43.0,29.98,NW,325,3.5,3.5,32,0.00,,,0.00,0.0,WeatherDisplay:10.37,2013-08-07 04:55:00,
2013-08-06 21:56:00,74.9,43.0,29.98,NW,325,3.5,3.5,32,0.00,,,0.00,0.0,WeatherDisplay:10.37,2013-08-07 04:56:00,
2013-08-06 21:58:00,74.8,43.0,29.98,WNW,301,3.5,3.5,32,0.00,,,0.00,0.0,WeatherDisplay:10.37,2013-08-07 04:58:00,
2013-08-06 22:00:00,74.8,43.8,29.98,NW,311,3.5,3.5,33,0.00,,,0.00,0.0,WeatherDisplay:10.37,2013-08-07 05:00:00,
2013-08-06 22:01:00,74.8,43.8,29.98,NW,319,4.0,4.0,33,0.00,,,0.00,0.0,WeatherDisplay:10.37,2013-08-07 05:01:00,
2013-08-06 22:03:00,74.7,43.7,29.98,NW,311,3.5,3.5,33,0.00,,,0.00,0.0,WeatherDisplay:10.37,2013-08-07 05:03:00,
2013-08-06 22:05:00,74.7,43.7,29.98,WNW,302,4.6,4.6,33,0.00,,,0.00,0.0,WeatherDisplay:10.37,2013-08-07 05:05:00,
2013-08-06 22:06:00,74.6,44.4,29.98,WNW,302,4.6,4.6,34,0.00,,,0.00,0.0,WeatherDisplay:10.37,2013-08-07 05:06:00,
2013-08-06 22:08:00,74.5,44.3,29.98,NW,318,3.5,3.5,34,0.00,,,0.00,0.0,WeatherDisplay:10.37,2013-08-07 05:08:00,
2013-08-06 22:10:00,74.4,44.2,29.98,NW,321,3.5,3.5,34,0.00,,,0.00,0.0,WeatherDisplay:10.37,2013-08-07 05:10:00,
2013-08-06 22:11:00,74.4,45.0,29.98,NNW,329,3.5,3.5,35,0.00,,,0.00,0.0,WeatherDisplay:10.37,2013-08-07 05:11:00,
2013-08-06 22:14:00,74.2,44.8,29.98,NW,312,4.0,4.0,35,0.00,,,0.00,0.0,WeatherDisplay:10.37,2013-08-07 05:14:00,
2013-08-06 22:15:00,74.2,44.8,29.98,NW,309,3.5,3.5,35,0.00,,,0.00,0.0,WeatherDisplay:10.37,2013-08-07 05:15:00,
2013-08-06 22:17:00,74.2,44.8,29.98,NW,312,5.8,5.8,35,0.00,,,0.00,0.0,WeatherDisplay:10.37,2013-08-07 05:17:00,
2013-08-06 22:19:00,74.1,44.7,29.98,WNW,302,4.6,4.6,35,0.00,,,0.00,0.0,WeatherDisplay:10.37,2013-08-07 05:19:00,
2013-08-06 22:20:00,74.1,44.7,29.98,WNW,302,4.6,4.6,35,0.00,,,0.00,0.0,WeatherDisplay:10.37,2013-08-07 05:20:00,
2013-08-06 22:22:00,74.0,45.3,29.98,WNW,302,5.0,5.0,36,0.00,,,0.00,0.0,WeatherDisplay:10.37,2013-08-07 05:22:00,
2013-08-06 22:25:00,73.8,45.2,29.98,WNW,302,3.0,7.0,36,0.00,,,0.00,0.0,WeatherDisplay:10.37,2013-08-07 05:25:00,
2013-08-06 22:26:00,73.7,45.1,29.98,NW,306,5.0,5.0,36,0.00,,,0.00,0.0,WeatherDisplay:10.37,2013-08-07 05:26:00,
2013-08-06 22:27:00,73.6,45.0,29.98,WNW,296,4.6,4.6,36,0.00,,,0.00,0.0,WeatherDisplay:10.37,2013-08-07 05:27:00,
2013-08-06 22:30:00,73.4,44.8,29.98,NW,305,2.0,7.0,36,0.00,,,0.00,0.0,WeatherDisplay:10.37,2013-08-07 05:30:00,
2013-08-06 22:31:00,73.3,44.7,29.98,NW,306,5.0,5.0,36,0.00,,,0.00,0.0,WeatherDisplay:10.37,2013-08-07 05:31:00,
2013-08-06 22:32:00,73.2,44.6,29.98,NW,321,5.0,5.0,36,0.00,,,0.00,0.0,WeatherDisplay:10.37,2013-08-07 05:32:00,
2013-08-06 22:34:00,73.1,44.5,29.98,NW,323,5.8,5.8,36,0.00,,,0.00,0.0,WeatherDisplay:10.37,2013-08-07 05:34:00,
2013-08-06 22:35:00,73.0,44.5,29.98,NW,315,5.8,5.8,36,0.00,,,0.00,0.0,WeatherDisplay:10.37,2013-08-07 05:35:00,
2013-08-06 22:36:00,73.0,45.2,29.98,NW,315,4.6,4.6,37,0.00,,,0.00,0.0,WeatherDisplay:10.37,2013-08-07 05:36:00,
2013-08-06 22:38:00,72.8,45.0,29.98,NW,315,4.6,4.6,37,0.00,,,0.00,0.0,WeatherDisplay:10.37,2013-08-07 05:38:00,
2013-08-06 22:39:00,72.7,44.9,29.98,NW,310,4.0,4.0,37,0.00,,,0.00,0.0,WeatherDisplay:10.37,2013-08-07 05:39:00,
2013-08-06 22:41:00,72.6,44.8,29.98,NW,306,4.0,4.0,37,0.00,,,0.00,0.0,WeatherDisplay:10.37,2013-08-07 05:41:00,
2013-08-06 22:42:00,72.5,44.7,29.98,NW,312,5.8,5.8,37,0.00,,,0.00,0.0,WeatherDisplay:10.37,2013-08-07 05:42:00,
2013-08-06 22:43:00,72.4,44.6,29.98,NW,305,6.0,6.0,37,0.00,,,0.00,0.0,WeatherDisplay:10.37,2013-08-07 05:43:00,
2013-08-06 22:45:00,72.3,44.6,29.98,NW,312,4.6,4.6,37,0.00,,,0.00,0.0,WeatherDisplay:10.37,2013-08-07 05:45:00,
2013-08-06 22:46:00,72.2,45.2,29.98,WNW,302,6.0,6.0,38,0.00,,,0.00,0.0,WeatherDisplay:10.37,2013-08-07 05:46:00,
2013-08-06 22:47:00,72.1,45.1,29.98,NW,308,5.8,5.8,38,0.00,,,0.00,0.0,WeatherDisplay:10.37,2013-08-07 05:47:00,
2013-08-06 22:48:00,72.1,45.1,29.98,NW,315,5.8,5.8,38,0.00,,,0.00,0.0,WeatherDisplay:10.37,2013-08-07 05:48:00,
2013-08-06 22:51:00,71.9,44.9,29.98,NW,311,4.0,4.0,38,0.00,,,0.00,0.0,WeatherDisplay:10.37,2013-08-07 05:51:00,
2013-08-06 22:53:00,71.9,44.9,29.98,NW,323,4.0,4.0,38,0.00,,,0.00,0.0,WeatherDisplay:10.37,2013-08-07 05:53:00,
2013-08-06 22:55:00,71.7,44.7,29.98,NW,320,3.5,3.5,38,0.00,,,0.00,0.0,WeatherDisplay:10.37,2013-08-07 05:55:00,
2013-08-06 22:56:00,71.7,44.7,29.98,WNW,294,4.0,4.0,38,0.00,,,0.00,0.0,WeatherDisplay:10.37,2013-08-07 05:56:00,
2013-08-06 22:57:00,71.7,44.7,29.98,NW,305,6.0,6.0,38,0.00,,,0.00,0.0,WeatherDisplay:10.37,2013-08-07 05:57:00,
2013-08-06 22:58:00,71.7,44.7,29.98,WNW,296,8.1,8.1,38,0.00,,,0.00,0.0,WeatherDisplay:10.37,2013-08-07 05:58:00,
2013-08-06 23:00:00,71.6,44.6,29.98,NW,306,3.5,3.5,38,0.00,,,0.00,0.0,WeatherDisplay:10.37,2013-08-07 06:00:00,
2013-08-06 23:01:00,71.5,44.5,29.98,NW,306,3.5,3.5,38,0.00,,,0.00,0.0,WeatherDisplay:10.37,2013-08-07 06:01:00,
2013-08-06 23:02:00,71.5,44.5,29.98,NW,306,3.5,3.5,38,0.00,,,0.00,0.0,WeatherDisplay:10.37,2013-08-07 06:02:00,
2013-08-06 23:04:00,71.2,45.0,29.98,NW,311,1.2,1.2,39,0.00,,,0.00,0.0,WeatherDisplay:10.37,2013-08-07 06:04:00,
2013-08-06 23:05:00,71.1,44.9,29.98,NW,311,3.5,3.5,39,0.00,,,0.00,0.0,WeatherDisplay:10.37,2013-08-07 06:05:00,
2013-08-06 23:07:00,71.0,44.8,29.98,NNW,329,3.5,3.5,39,0.00,,,0.00,0.0,WeatherDisplay:10.37,2013-08-07 06:07:00,
2013-08-06 23:08:00,70.9,44.7,29.98,NNW,329,2.3,2.3,39,0.00,,,0.00,0.0,WeatherDisplay:10.37,2013-08-07 06:08:00,
2013-08-06 23:09:00,70.8,44.6,29.98,NNW,329,2.3,2.3,39,0.00,,,0.00,0.0,WeatherDisplay:10.37,2013-08-07 06:09:00,
2013-08-06 23:10:00,70.8,44.6,29.98,NNW,327,2.3,2.3,39,0.00,,,0.00,0.0,WeatherDisplay:10.37,2013-08-07 06:10:00,
2013-08-06 23:13:00,70.8,44.6,29.98,WNW,303,3.5,3.5,39,0.00,,,0.00,0.0,WeatherDisplay:10.37,2013-08-07 06:13:00,
2013-08-06 23:14:00,70.7,44.5,29.98,WNW,303,2.3,2.3,39,0.00,,,0.00,0.0,WeatherDisplay:10.37,2013-08-07 06:14:00,
2013-08-06 23:15:00,70.7,44.5,29.98,WNW,303,2.3,2.3,39,0.00,,,0.00,0.0,WeatherDisplay:10.37,2013-08-07 06:15:00,
2013-08-06 23:18:00,70.6,44.4,29.98,WNW,303,3.0,3.0,39,0.00,,,0.00,0.0,WeatherDisplay:10.37,2013-08-07 06:18:00,
2013-08-06 23:19:00,70.5,44.3,29.98,WNW,303,3.5,3.5,39,0.00,,,0.00,0.0,WeatherDisplay:10.37,2013-08-07 06:19:00,
2013-08-06 23:20:00,70.4,44.3,29.98,WNW,303,3.5,3.5,39,0.00,,,0.00,0.0,WeatherDisplay:10.37,2013-08-07 06:20:00,
2013-08-06 23:21:00,70.4,44.3,29.98,WNW,303,1.2,1.2,39,0.00,,,0.00,0.0,WeatherDisplay:10.37,2013-08-07 06:21:00,
2013-08-06 23:23:00,70.2,44.1,29.98,WNW,303,1.2,1.2,39,0.00,,,0.00,0.0,WeatherDisplay:10.37,2013-08-07 06:23:00,
2013-08-06 23:24:00,70.2,44.7,29.98,WNW,303,1.2,0.0,40,0.00,,,0.00,0.0,WeatherDisplay:10.37,2013-08-07 06:24:00,
2013-08-06 23:25:00,70.1,44.6,29.98,WNW,303,0.0,0.0,40,0.00,,,0.00,0.0,WeatherDisplay:10.37,2013-08-07 06:25:00,
2013-08-06 23:26:00,70.0,44.6,29.98,WNW,303,0.0,0.0,40,0.00,,,0.00,0.0,WeatherDisplay:10.37,2013-08-07 06:26:00,
2013-08-06 23:28:00,69.7,44.3,29.98,WNW,303,0.0,0.0,40,0.00,,,0.00,0.0,WeatherDisplay:10.37,2013-08-07 06:28:00,
2013-08-06 23:29:00,69.6,44.2,29.98,WNW,303,0.0,0.0,40,0.00,,,0.00,0.0,WeatherDisplay:10.37,2013-08-07 06:29:00,
2013-08-06 23:31:00,69.5,44.1,29.99,WNW,303,0.0,0.0,40,0.00,,,0.00,0.0,WeatherDisplay:10.37,2013-08-07 06:31:00,
2013-08-06 23:34:00,69.3,43.9,29.99,WNW,303,0.0,0.0,40,0.00,,,0.00,0.0,WeatherDisplay:10.37,2013-08-07 06:34:00,
2013-08-06 23:36:00,69.4,44.0,29.99,WNW,303,0.0,0.0,40,0.00,,,0.00,0.0,WeatherDisplay:10.37,2013-08-07 06:36:00,
2013-08-06 23:39:00,69.4,44.0,29.98,WNW,303,0.0,0.0,40,0.00,,,0.00,0.0,WeatherDisplay:10.37,2013-08-07 06:39:00,
2013-08-06 23:40:00,69.4,44.0,29.98,WNW,303,0.0,0.0,40,0.00,,,0.00,0.0,WeatherDisplay:10.37,2013-08-07 06:40:00,
2013-08-06 23:41:00,69.4,44.0,29.98,WNW,303,0.0,0.0,40,0.00,,,0.00,0.0,WeatherDisplay:10.37,2013-08-07 06:41:00,
2013-08-06 23:42:00,69.4,44.0,29.98,WNW,303,1.0,1.0,40,0.00,,,0.00,0.0,WeatherDisplay:10.37,2013-08-07 06:42:00,
2013-08-06 23:45:00,69.1,44.4,29.98,WNW,303,1.2,0.0,41,0.00,,,0.00,0.0,WeatherDisplay:10.37,2013-08-07 06:45:00,
2013-08-06 23:46:00,68.8,44.8,29.98,WNW,303,0.0,0.0,42,0.00,,,0.00,0.0,WeatherDisplay:10.37,2013-08-07 06:46:00,
2013-08-06 23:47:00,68.6,44.6,29.98,WNW,303,0.0,0.0,42,0.00,,,0.00,0.0,WeatherDisplay:10.37,2013-08-07 06:47:00,
2013-08-06 23:50:00,68.5,44.5,29.98,WNW,303,0.0,0.0,42,0.00,,,0.00,0.0,WeatherDisplay:10.37,2013-08-07 06:50:00,
2013-08-06 23:51:00,68.4,44.4,29.98,WNW,303,1.2,0.0,42,0.00,,,0.00,0.0,WeatherDisplay:10.37,2013-08-07 06:51:00,
2013-08-06 23:52:00,68.4,44.4,29.98,WNW,303,1.2,0.0,42,0.00,,,0.00,0.0,WeatherDisplay:10.37,2013-08-07 06:52:00,
2013-08-06 23:55:00,68.2,44.8,29.98,WNW,303,0.0,0.0,43,0.00,,,0.00,0.0,WeatherDisplay:10.37,2013-08-07 06:55:00,
2013-08-06 23:56:00,68.3,44.9,29.98,WNW,303,0.0,0.0,43,0.00,,,0.00,0.0,WeatherDisplay:10.37,2013-08-07 06:56:00,
2013-08-06 23:57:00,68.3,44.9,29.99,WNW,303,0.0,0.0,43,0.00,,,0.00,0.0,WeatherDisplay:10.37,2013-08-07 06:57:00,
2013-08-06 23:58:00,68.3,44.9,29.99,WNW,303,0.0,0.0,43,0.00,,,0.00,0.0,WeatherDisplay:10.37,2013-08-07 06:58:00,